GFSFLT1_925_spd_000.txt.gz
Wind_Speed
6 7 5 7 7 7 7 9 8 8 8 8 9 7 8 11 9 8 10 10 10 9 9 11 10 9 9 8 6 7 8 8 9
8 9 7 8 9 9 9 9 10 11 10 11 11 11 11 13 11 12 14 13 11 11 11 10 11 10 9 10 10 9 9 9 9
10 11 10 9 10 11 11 11 11 11 13 13 12 12 14 16 14 13 16 15 13 14 14 13 12 12 12 12 12 12 11 11 11
12 10 10 10 11 13 13 12 13 13 13 14 14 14 16 19 18 16 17 19 18 16 17 16 16 15 14 15 15 15 14 14 14
13 15 16 12 12 14 14 14 14 14 14 15 15 17 18 21 22 22 20 20 21 18 19 19 18 17 18 18 18 18 17 17 16
18 19 18 18 16 15 15 16 16 17 18 19 20 20 22 23 24 25 25 23 23 21 21 22 22 21 20 21 21 21 21 21 20
18 18 18 19 18 17 17 17 18 19 21 22 22 23 25 26 27 27 27 28 25 24 25 25 25 25 24 25 25 24 24 24 23
20 20 20 20 20 21 21 21 22 23 24 24 25 26 26 28 30 31 30 30 28 29 28 28 29 28 28 28 28 28 28 27 27
22 23 23 23 22 23 23 25 25 26 26 27 27 27 29 30 31 33 33 33 32 30 31 30 30 31 31 31 31 32 32 31 31
23 24 25 25 24 24 26 26 27 28 29 29 30 30 30 31 32 34 34 34 34 33 31 33 32 33 36 35 35 35 35 35 34
25 26 27 27 27 28 29 31 31 32 33 34 33 34 34 33 34 34 36 35 35 37 35 33 36 36 37 38 38 39 39 39 38
25 27 29 31 30 30 31 32 33 35 36 38 38 38 38 38 38 37 38 39 39 39 39 37 37 38 39 40 41 40 41 41 41
26 28 31 32 33 33 33 33 35 37 38 39 40 40 39 40 40 40 40 42 43 43 42 42 41 42 43 42 43 44 44 43 43
26 28 31 32 33 34 34 34 32 32 31 32 37 36 37 38 39 40 41 42 43 45 45 44 44 45 46 44 45 46 46 47 46
22 24 26 27 29 31 31 31 31 30 34 32 29 32 35 36 37 38 39 41 42 43 43 44 45 45 45 46 46 47 48 50 50
12 14 17 18 21 25 26 28 29 28 28 21 22 25 28 31 34 36 37 37 38 38 38 38 40 40 38 37 38 43 46 48 49
19 19 19 19 18 20 21 23 22 19 22 11 16 5 10 21 28 33 37 36 37 36 40 41 41 40 40 40 39 37 36 38 41
19 20 20 21 21 22 22 21 19 20 23 19 11 6 8 9 22 26 26 33 34 36 36 39 42 43 44 44 44 43 43 41 39
22 23 23 24 24 25 24 24 23 21 18 21 18 22 23 9 11 13 21 30 36 35 37 39 41 42 45 47 47 48 48 47 46
24 26 26 26 26 25 25 25 26 24 21 18 20 22 20 19 9 14 10 25 23 28 34 36 38 41 43 44 45 47 45 46 46

GFSFLT1_925_spd_003.txt.gz
Wind_Speed
3 6 7 7 7 5 6 6 8 8 8 9 9 10 9 12 12 11 9 10 11 11 11 11 13 12 11 11 10 9 9 8 9
6 9 8 6 6 6 7 8 9 9 11 11 12 13 14 13 15 13 13 14 13 13 13 13 15 15 14 14 13 11 11 10 11
10 10 8 6 6 7 9 10 10 10 11 12 13 15 14 17 17 17 15 18 18 15 15 16 15 15 15 14 14 13 13 12 13
7 8 10 10 8 9 11 13 12 12 12 13 14 15 16 16 17 19 18 17 19 18 17 18 18 18 17 17 17 16 16 16 16
10 10 12 13 13 12 13 14 15 14 14 14 16 17 18 17 18 19 19 21 20 19 20 20 21 20 20 20 19 19 19 19 19
14 15 16 16 16 14 14 15 16 18 19 19 19 19 17 18 19 20 22 24 22 21 22 23 23 23 23 23 23 23 22 22 22
16 16 16 17 17 17 17 17 18 18 16 17 20 18 19 19 20 21 26 26 24 25 25 25 26 27 27 26 26 26 26 25 26
17 18 18 19 19 20 20 19 18 19 20 20 20 22 23 22 23 25 28 28 26 26 27 28 29 29 30 31 29 29 29 29 29
18 19 20 21 22 22 22 23 23 25 25 25 26 26 26 26 27 28 29 28 28 28 29 30 31 32 32 33 35 34 34 34 34
19 20 21 23 24 24 25 25 26 27 26 27 27 28 28 28 30 32 34 31 31 31 30 31 32 33 34 35 37 38 38 38 38
21 23 23 25 25 26 26 24 23 23 22 26 25 29 29 31 31 32 35 38 35 34 34 32 33 34 36 38 39 40 41 41 42
22 24 25 25 26 27 25 25 24 24 23 23 24 25 26 27 29 30 33 35 38 38 38 35 35 36 37 38 41 42 43 42 44
20 21 23 23 23 23 22 20 20 20 20 22 25 22 24 27 29 29 31 33 34 37 38 37 39 38 38 39 40 43 45 46 45
15 16 18 18 18 18 18 17 16 20 21 22 25 24 25 26 27 28 30 33 36 37 38 40 39 39 41 41 42 45 47 48 49
11 12 13 15 15 15 15 17 17 20 23 26 27 25 25 24 26 27 28 28 32 34 33 34 32 36 37 39 40 44 47 49 50
19 18 18 18 16 16 16 16 18 19 19 19 19 18 24 25 23 26 25 27 32 30 31 34 33 33 37 38 38 38 40 45 48
19 19 19 19 18 19 18 17 18 17 20 15 20 7 17 21 18 24 27 28 30 30 31 30 30 32 32 36 39 40 41 40 41
19 19 19 19 19 17 17 17 17 16 19 17 10 7 7 12 22 23 28 22 20 22 25 32 33 33 32 37 40 42 44 45 42
21 22 22 22 20 20 19 19 19 19 18 20 14 21 22 10 13 15 25 27 22 28 29 27 29 30 32 35 40 43 44 45 41
22 22 21 20 17 17 18 19 20 17 18 18 20 20 20 20 11 17 12 27 26 28 31 31 30 30 30 34 37 39 39 40 37

GFSFLT1_925_spd_006.txt.gz
Wind_Speed
2 3 3 5 8 5 5 6 7 8 9 10 10 11 12 11 11 12 12 12 11 10 11 13 13 14 12 12 14 13 13 12 12
5 6 7 7 5 6 6 7 8 8 9 10 11 12 13 14 13 13 14 13 13 13 14 15 14 15 16 17 17 16 15 14 13
6 7 7 9 7 6 8 10 11 10 10 10 12 13 14 14 14 15 15 15 16 17 17 16 16 16 17 18 18 18 17 16 15
3 2 7 8 11 9 9 11 12 12 13 12 13 15 16 15 16 17 16 16 16 16 19 19 19 19 19 20 20 19 20 19 18
9 8 9 11 13 14 12 12 12 14 15 17 18 17 18 16 16 17 18 18 19 20 20 22 22 21 22 22 22 22 22 22 21
8 10 13 14 14 15 13 13 14 16 18 18 18 18 15 15 16 17 19 20 21 21 23 23 24 24 25 26 25 25 25 25 24
9 11 14 15 15 16 15 15 16 17 14 13 16 13 14 16 17 19 21 23 23 24 25 26 26 27 27 29 28 28 28 28 27
8 9 10 10 12 11 12 13 13 13 15 16 17 17 18 18 19 21 24 26 24 25 26 27 28 29 31 31 32 32 33 32 31
7 9 10 10 10 12 12 13 14 16 17 19 20 21 21 22 22 24 27 30 27 26 27 28 30 32 33 34 34 36 36 37 37
8 10 10 11 12 12 13 14 15 17 18 18 20 22 23 24 25 26 28 32 33 30 30 30 31 33 35 36 38 39 39 40 41
9 10 11 12 12 12 14 15 16 17 18 19 21 23 24 25 26 27 28 30 34 35 33 32 33 34 35 37 39 40 41 42 42
9 10 11 11 12 14 14 15 16 17 18 20 21 22 24 25 26 26 27 27 29 33 34 33 35 36 37 38 40 42 43 45 46
7 8 9 11 12 12 13 15 16 17 18 20 21 22 24 25 26 26 26 26 26 26 29 32 33 35 37 39 41 43 45 46 47
6 8 9 10 9 11 12 14 15 18 19 19 22 23 23 24 25 25 26 26 26 27 27 31 35 38 37 37 40 43 45 47 48
11 10 12 12 12 13 15 16 17 18 20 22 23 23 24 24 23 23 24 22 24 26 27 28 27 29 33 35 35 37 41 45 48
14 12 13 13 13 13 14 15 17 18 19 23 25 24 23 18 26 16 24 31 31 29 29 28 27 27 28 32 33 34 35 38 42
13 12 11 12 12 13 15 16 19 18 20 21 23 9 19 18 29 35 27 29 32 27 24 25 28 30 28 29 32 36 37 35 38
12 12 12 12 12 13 14 15 16 18 19 19 14 10 10 13 26 29 28 25 32 32 30 31 34 34 33 32 33 34 37 37 38
13 12 12 12 11 13 14 16 16 16 17 19 17 21 24 13 15 15 29 27 30 33 33 34 36 38 40 32 31 37 41 44 40
13 12 11 12 12 13 13 14 15 15 17 18 20 21 21 24 14 17 11 30 30 32 34 35 33 37 39 33 31 34 32 32 35

GFSFLT1_925_spd_009.txt.gz
Wind_Speed
5 1 1 2 7 6 5 5 5 6 7 8 9 11 11 13 13 11 11 11 11 9 8 10 12 13 14 13 12 14 13 13 13
7 5 2 5 7 7 6 7 8 8 8 8 8 10 11 13 13 14 13 12 12 13 13 13 15 15 15 16 16 16 16 15 14
2 6 3 4 8 8 8 8 10 11 10 10 10 11 12 12 14 14 15 15 15 15 16 17 17 17 18 17 18 18 17 17 16
4 2 3 5 7 8 11 11 10 11 11 11 12 16 16 15 15 16 17 17 16 17 18 18 19 20 20 21 20 19 19 19 19
7 7 8 10 12 14 14 13 12 13 14 15 17 18 19 17 17 17 18 19 19 20 20 21 21 23 23 24 23 22 22 22 22
4 6 11 13 13 14 14 14 14 14 17 16 15 14 14 14 15 16 18 19 20 22 23 23 25 25 26 27 28 26 26 25 25
5 8 10 11 11 12 12 12 13 13 12 13 11 11 13 15 17 19 20 23 22 23 24 25 26 28 29 29 29 30 28 29 29
4 5 6 7 9 8 10 12 11 12 14 15 15 16 18 19 20 21 23 26 24 25 26 27 28 30 31 31 32 33 33 32 33
5 6 6 7 7 9 10 11 12 15 16 17 18 19 21 21 22 24 26 28 30 28 29 30 30 31 32 33 34 36 37 36 36
6 7 8 8 9 10 12 14 15 16 17 18 19 20 22 23 24 24 27 29 31 32 30 32 33 34 34 35 36 38 38 39 40
6 8 8 10 10 12 14 15 17 17 18 19 20 21 22 24 25 25 26 28 31 32 34 32 32 34 36 37 38 40 41 42 43
6 7 9 11 12 12 13 14 14 16 17 18 19 20 21 23 25 27 26 26 27 29 30 31 31 32 33 36 38 40 41 43 44
5 7 9 10 9 10 11 14 16 16 16 17 18 19 20 23 25 25 26 23 24 25 27 29 30 31 32 33 35 39 41 43 45
8 9 10 10 10 11 13 15 15 18 19 20 20 24 23 24 26 25 25 23 21 23 23 27 29 32 33 32 33 34 38 41 43
10 10 11 11 11 12 15 16 16 18 19 21 23 22 26 27 26 20 23 30 33 34 34 31 27 29 24 30 31 32 32 33 38
13 11 12 13 12 13 15 16 18 18 19 18 20 24 18 25 20 27 30 28 26 34 29 26 27 29 30 31 34 33 31 32 34
13 14 13 13 13 13 15 17 17 16 19 18 20 7 13 17 28 27 24 31 22 30 29 30 35 34 33 33 34 34 35 37 38
12 12 12 12 12 13 15 16 16 15 17 17 12 6 7 12 21 26 20 30 32 25 34 33 33 34 36 41 40 35 36 31 32
12 12 12 11 11 12 13 14 14 15 15 17 15 19 22 12 12 10 27 23 27 33 29 33 34 35 31 35 41 33 27 21 25
12 11 11 10 10 11 12 15 16 15 16 17 18 19 19 21 12 16 12 24 24 27 31 28 34 35 32 30 30 32 27 29 31

GFSFLT1_925_spd_012.txt.gz
Wind_Speed
3 1 2 1 6 7 4 3 4 4 5 6 6 8 9 10 10 11 11 10 11 11 7 9 10 10 12 12 12 12 12 12 11
6 4 1 2 5 5 4 4 5 7 8 8 8 9 9 12 13 12 13 10 12 13 13 13 12 13 13 14 15 15 15 15 14
3 6 3 1 5 5 6 6 8 9 9 9 11 12 13 14 13 14 14 11 14 15 16 16 16 16 16 17 17 17 18 18 17
1 5 4 4 7 8 9 10 10 11 11 12 13 15 16 18 18 16 17 18 16 18 18 18 19 18 19 20 20 21 20 19 19
5 4 6 8 9 12 12 12 12 12 12 14 15 15 16 19 16 15 16 14 16 19 19 19 20 21 22 23 24 23 23 22 22
3 5 7 11 12 13 13 12 12 12 14 13 11 15 17 16 12 16 18 18 19 20 21 22 23 24 25 26 27 27 27 26 26
6 7 8 7 8 11 9 11 12 13 12 13 14 15 17 17 17 18 21 22 21 21 22 24 25 26 26 28 29 29 30 31 30
4 5 7 7 9 11 11 14 15 14 15 17 18 18 19 20 23 24 24 24 25 24 25 26 26 28 29 30 30 31 33 33 34
2 4 6 8 8 9 13 13 15 18 19 20 19 20 21 22 25 24 25 26 26 26 26 27 28 28 31 32 32 34 35 35 36
3 5 7 9 9 10 12 14 16 19 18 19 19 22 21 23 22 23 23 24 26 27 27 27 28 28 29 31 34 36 36 37 39
4 6 8 8 10 12 13 13 15 16 16 16 17 18 21 24 24 25 26 27 26 26 27 25 26 27 28 29 31 35 36 38 40
4 7 9 12 11 11 11 14 15 16 18 19 19 20 20 23 25 26 27 28 27 25 25 25 25 24 26 28 29 32 35 35 38
8 9 10 11 10 14 12 16 18 18 20 21 22 23 26 25 26 28 27 18 18 22 24 22 26 30 31 31 31 31 31 33 35
13 12 10 12 12 13 15 16 18 21 23 21 24 24 24 28 26 19 23 31 32 29 27 31 27 24 26 25 26 28 32 32 34
12 12 12 12 13 15 15 17 18 18 21 23 21 26 22 21 17 28 36 29 30 30 24 29 26 29 33 32 30 28 28 30 34
14 13 13 14 14 14 15 16 17 17 21 15 23 13 14 18 24 38 26 32 27 23 32 28 32 35 37 36 34 37 40 38 38
14 14 13 13 13 13 14 16 17 15 20 16 15 4 12 10 27 23 29 20 28 35 27 33 40 32 35 40 38 36 34 36 34
14 13 12 12 11 12 13 15 16 16 20 19 9 4 3 15 6 26 19 30 30 28 34 30 30 34 31 35 40 39 31 28 27
13 11 11 10 9 11 13 14 15 15 17 19 12 18 22 7 9 5 32 21 29 30 28 32 25 35 37 34 32 30 32 28 31
12 10 10 10 11 12 13 15 16 16 17 18 20 23 20 23 9 14 11 24 24 26 29 24 33 32 31 42 35 34 36 39 39

GFSFLT1_925_spd_015.txt.gz
Wind_Speed
5 3 1 1 3 3 4 2 1 2 3 4 5 6 8 11 12 12 12 10 9 10 10 8 9 10 10 12 12 12 12 12 11
7 7 3 1 4 4 2 3 4 6 7 8 8 8 10 11 12 13 12 11 11 11 13 14 13 13 14 14 16 17 16 15 14
7 7 4 2 4 5 5 5 7 7 8 9 10 11 13 14 15 15 15 12 11 13 15 16 16 16 17 17 17 18 18 17 17
2 6 5 4 5 7 9 9 10 10 10 10 12 13 14 16 18 18 15 13 13 15 16 17 17 18 19 19 20 20 21 20 20
3 3 4 6 8 11 12 12 11 10 11 12 13 13 14 16 17 15 13 13 15 15 16 18 18 19 19 21 22 23 24 23 23
4 4 4 6 8 8 10 8 9 10 11 10 11 11 14 15 16 16 15 14 16 16 19 21 20 20 21 22 23 24 25 26 27
6 2 5 4 7 8 8 10 11 13 14 15 15 17 17 16 18 19 20 20 20 21 22 24 25 22 23 23 24 25 27 28 30
2 3 5 5 7 8 9 13 13 15 15 16 15 16 17 20 22 23 21 22 23 24 25 26 27 27 25 23 25 27 28 30 32
2 3 3 7 7 7 8 9 12 13 15 16 15 16 17 15 17 17 16 17 20 21 23 24 25 27 26 26 26 28 30 32 34
1 2 4 3 4 8 9 9 10 12 13 15 17 18 19 20 20 21 22 23 24 24 24 23 23 24 25 25 26 27 29 28 31
2 1 7 8 9 9 10 11 11 11 13 14 14 15 16 17 20 20 22 21 18 17 19 19 19 21 23 23 24 26 28 30 30
5 9 12 12 8 7 8 10 11 13 14 14 15 18 20 20 21 20 14 17 22 21 20 18 19 17 18 20 21 25 26 30 30
6 8 11 9 7 8 10 12 14 15 15 17 18 17 18 19 14 13 20 24 21 26 20 20 19 18 20 23 23 24 25 27 24
10 10 8 8 8 11 12 13 15 16 18 18 17 20 14 15 14 19 28 23 26 22 22 27 25 27 25 26 26 26 28 31 33
9 9 10 9 9 12 13 14 14 16 19 14 22 11 9 18 16 30 24 27 26 23 31 30 32 33 33 29 30 31 30 32 32
10 10 10 10 11 12 12 14 17 17 22 12 21 9 9 14 22 26 19 30 20 30 25 28 36 28 29 33 31 29 36 35 32
11 10 11 9 9 11 12 15 15 9 19 13 6 4 9 7 36 15 32 16 29 24 31 30 27 29 28 29 32 33 29 27 29
11 10 9 9 9 10 11 13 15 14 16 20 7 4 3 16 8 30 14 34 23 30 27 29 29 26 31 33 34 32 35 31 30
10 9 8 8 9 10 11 12 14 16 17 20 12 13 15 4 6 6 33 20 30 29 30 29 25 31 29 36 33 26 30 32 33
9 8 8 8 9 10 11 13 15 16 15 15 20 21 21 17 5 11 6 27 26 29 29 29 31 27 35 28 31 36 35 35 38

GFSFLT1_925_spd_018.txt.gz
Wind_Speed
8 4 4 2 3 4 5 2 3 4 4 5 6 7 7 9 10 11 12 12 11 9 8 10 10 8 10 11 12 12 12 12 12
8 6 5 0 2 3 3 3 4 6 7 8 9 9 11 12 12 12 12 11 10 11 10 13 13 11 12 13 14 16 17 18 17
7 7 3 2 2 3 5 6 6 7 8 9 9 10 12 13 14 14 14 12 9 11 12 13 14 15 15 16 17 17 18 18 18
6 7 5 3 4 5 7 8 8 8 9 9 10 10 11 13 14 14 12 9 9 10 12 13 14 15 15 17 18 18 19 20 20
3 4 4 4 5 7 8 6 6 6 8 9 9 10 12 13 15 14 14 12 12 13 14 14 15 17 17 17 18 19 20 21 22
5 5 4 2 3 3 4 4 6 8 10 11 12 13 15 16 17 18 17 17 17 16 17 18 21 20 20 20 20 20 22 22 23
6 4 4 3 3 4 5 6 8 10 11 12 12 13 14 15 18 20 21 21 21 19 22 23 22 23 24 24 20 22 22 23 25
4 4 5 8 9 9 10 8 7 9 11 10 10 10 10 10 12 14 14 15 13 16 18 19 18 19 21 23 25 25 23 25 26
3 5 4 5 5 4 5 5 5 6 8 8 8 9 9 11 12 13 14 14 14 15 16 17 17 18 18 19 22 25 25 24 24
3 1 5 5 4 5 5 5 7 7 8 10 11 12 13 14 15 16 15 14 14 14 16 16 16 15 14 14 15 18 18 20 22
5 5 6 8 7 6 6 7 8 10 11 12 13 14 16 16 15 12 12 14 13 15 17 16 17 15 17 16 17 18 18 18 18
5 6 5 5 5 4 5 7 9 11 12 14 14 15 16 13 9 10 17 16 15 17 15 17 14 17 19 19 19 19 19 20 22
5 3 5 4 4 6 9 11 11 12 14 15 14 18 11 8 9 13 19 17 21 15 18 15 17 20 22 20 20 21 23 24 24
6 5 5 5 6 8 10 11 11 14 16 15 16 16 7 7 10 21 20 20 19 18 18 21 26 25 20 21 21 22 22 23 27
7 6 6 6 7 8 9 9 10 12 17 13 19 9 4 7 8 25 16 23 15 21 22 29 31 27 23 27 23 22 26 27 27
8 8 7 7 8 9 10 10 12 10 19 9 17 5 4 9 17 17 26 18 21 28 23 31 29 26 29 23 24 27 29 26 28
9 8 8 7 7 8 9 12 11 8 15 8 4 4 6 6 29 8 25 14 32 17 25 29 28 28 24 27 29 27 29 28 27
9 8 7 7 7 8 9 10 11 10 10 10 8 4 3 10 4 24 9 31 19 26 27 27 26 24 27 31 28 30 26 31 32
7 7 6 7 7 7 8 9 11 12 11 7 12 6 10 3 6 6 28 17 28 25 25 28 23 28 27 27 29 24 31 33 29
7 6 6 6 6 7 9 10 12 13 13 14 15 13 15 11 6 10 8 27 26 27 27 26 30 30 27 25 25 34 31 27 32

GFSFLT1_925_spd_021.txt.gz
Wind_Speed
9 5 3 2 4 5 5 3 2 2 4 5 6 7 7 8 10 10 10 10 10 9 8 9 10 11 9 10 11 12 11 12 12
11 8 5 2 1 2 3 2 3 4 5 6 6 7 9 11 11 11 12 11 10 10 10 10 12 13 12 11 12 14 14 16 17
7 8 4 2 2 1 2 4 5 6 7 7 7 8 9 11 12 12 12 10 8 9 11 12 12 13 14 14 14 15 16 17 17
6 6 5 4 3 4 5 6 6 6 7 7 7 8 9 11 12 13 13 12 11 10 11 12 14 14 15 15 15 16 17 18 18
4 6 4 4 5 5 6 5 6 7 8 9 10 11 12 13 14 15 16 16 15 14 14 14 15 15 17 18 17 17 17 19 19
5 5 3 3 4 4 5 7 7 9 11 12 13 13 14 14 14 13 14 14 15 16 18 19 18 20 21 21 22 19 20 20 21
5 3 3 4 6 6 8 10 11 9 8 9 8 8 9 9 9 10 11 11 11 10 12 13 13 14 17 20 22 23 23 23 23
5 5 4 6 9 9 8 5 6 6 4 5 6 6 6 7 8 9 10 11 11 11 12 13 14 12 13 14 17 20 23 25 25
3 2 2 2 2 1 1 2 3 4 5 6 7 8 9 9 10 9 9 10 11 12 12 13 14 13 13 12 11 14 14 13 13
5 3 4 3 4 2 2 3 6 8 8 9 10 10 11 11 8 7 8 8 8 12 12 14 12 14 14 14 14 14 14 14 14
7 5 6 4 2 4 6 7 8 10 11 12 12 12 13 8 5 9 10 10 11 12 14 13 14 16 16 16 15 15 15 16 17
4 6 3 4 5 5 6 8 9 11 13 13 12 13 12 4 7 11 11 12 14 12 13 15 16 18 18 16 17 18 18 17 17
4 4 4 4 5 7 9 11 11 13 16 16 14 16 8 1 7 14 13 14 12 12 11 14 17 19 17 18 19 18 18 19 21
4 5 6 5 7 9 9 10 11 14 18 18 16 18 7 3 6 17 13 15 12 14 15 17 22 20 17 19 16 17 18 21 22
8 7 7 7 8 9 10 10 11 11 19 18 19 14 6 5 6 21 10 17 13 19 19 20 27 23 20 18 17 20 22 22 23
8 8 7 8 9 10 11 10 12 12 20 11 19 7 7 10 9 23 14 24 14 22 17 31 26 26 23 20 23 24 22 24 22
9 8 8 9 9 9 10 12 11 11 16 10 4 4 7 3 24 16 22 11 22 22 31 27 26 25 22 24 24 21 25 23 24
8 7 8 8 8 8 9 11 12 10 10 8 7 3 3 8 5 13 9 23 14 26 30 29 27 23 25 30 24 25 23 25 31
7 6 6 6 6 6 8 9 10 9 8 7 8 5 9 3 5 5 23 14 26 28 29 29 24 26 28 27 23 21 27 31 30
6 5 5 5 6 6 6 7 9 9 8 9 8 8 14 10 5 10 9 27 26 28 27 25 31 27 29 24 24 27 30 28 29

GFSFLT1_925_spd_024.txt.gz
Wind_Speed
9 6 3 4 4 5 5 5 3 2 2 3 3 5 5 6 7 8 8 8 7 6 7 7 7 9 10 8 9 11 12 12 11
10 8 4 1 2 3 3 3 3 4 5 6 6 6 6 9 9 9 8 8 7 7 8 9 10 11 12 11 11 12 14 13 14
10 9 4 1 1 2 3 4 5 6 6 7 7 6 7 9 10 11 11 10 9 9 9 9 11 11 13 13 13 14 15 16 16
4 6 3 1 1 3 5 5 6 6 6 7 8 9 9 11 12 13 13 13 13 11 11 11 11 12 13 14 15 15 16 16 16
4 4 3 1 2 4 5 5 5 7 8 9 10 10 11 11 11 11 11 12 11 13 13 14 15 16 16 17 19 18 17 17 17
4 4 2 1 2 3 4 6 7 8 8 8 9 7 6 7 6 5 8 9 9 10 10 10 11 12 16 19 19 20 20 20 20
4 3 2 3 4 5 6 7 7 7 8 6 6 6 6 6 7 7 7 8 8 9 9 10 11 11 12 12 13 15 19 21 23
5 4 3 4 5 6 4 2 3 6 6 5 6 6 6 7 7 6 7 8 9 9 9 10 11 10 12 11 13 12 13 12 11
2 2 0 2 2 4 2 2 4 5 6 7 7 8 8 8 6 5 5 5 9 10 10 10 10 12 12 12 12 12 12 11 11
4 3 3 1 3 2 2 4 5 6 7 8 8 9 9 5 4 4 4 5 6 11 11 10 11 13 13 12 12 12 11 12 12
7 6 5 3 3 4 5 6 7 8 9 10 9 10 8 2 4 5 5 7 7 10 12 11 13 14 13 12 13 13 12 12 13
9 6 4 3 4 5 5 6 7 9 11 11 9 10 7 1 6 7 8 7 7 8 12 13 15 16 15 14 16 14 14 13 15
10 6 5 5 5 6 7 9 11 13 15 15 12 12 8 4 3 7 9 10 11 10 10 13 16 17 16 17 17 15 15 16 18
9 6 5 5 6 7 9 11 13 14 17 18 14 17 7 6 1 8 10 10 13 13 12 16 22 21 17 17 16 16 18 19 19
10 9 7 6 7 9 10 10 12 13 18 15 17 11 3 5 3 8 13 12 14 15 17 22 27 25 20 19 16 21 21 19 21
12 10 8 7 9 11 11 10 13 15 20 13 17 6 6 6 7 16 25 11 14 19 22 30 29 28 24 20 20 23 22 22 22
12 10 9 9 9 9 11 13 11 10 16 10 4 4 6 6 16 22 10 16 17 28 23 31 32 25 24 25 25 24 22 23 23
11 10 9 9 9 10 11 11 11 10 10 11 7 3 2 7 5 12 16 11 25 19 30 34 25 27 28 28 25 24 23 24 26
10 9 8 9 9 9 9 8 9 8 9 6 8 4 8 3 5 4 20 12 26 24 31 24 29 30 25 26 24 23 26 27 29
10 8 8 8 7 7 6 7 8 8 7 7 6 7 10 9 5 8 8 25 24 27 22 33 22 26 24 25 28 25 28 29 31

GFSFLT1_925_spd_027.txt.gz
Wind_Speed
7 5 2 4 6 7 7 6 5 5 4 4 4 5 6 6 7 7 7 8 7 7 8 8 7 7 9 9 8 8 10 10 11
8 5 1 2 4 5 5 5 5 5 5 5 4 4 5 5 6 7 8 8 8 7 7 8 9 10 11 12 11 11 11 12 12
9 9 2 2 3 4 4 4 5 5 5 5 5 5 5 5 7 8 8 8 8 8 8 9 10 12 13 13 14 13 13 13 15
8 7 3 2 2 3 3 4 5 5 6 6 6 6 6 6 7 8 8 9 8 8 10 12 12 13 14 15 16 16 15 15 15
6 5 3 2 1 1 3 4 5 6 6 7 7 7 5 6 5 4 6 8 8 9 8 7 8 10 13 17 18 18 18 17 18
4 5 4 2 1 1 3 4 5 5 5 7 7 6 5 4 4 5 6 7 8 8 9 9 10 10 10 12 10 12 17 19 21
6 5 4 2 1 2 4 3 4 4 4 4 4 5 5 5 5 5 5 6 7 8 8 9 9 10 12 13 13 11 10 8 6
6 4 2 1 3 3 0 1 3 5 4 4 4 5 5 5 4 4 3 5 8 7 8 8 11 11 12 12 11 11 10 9 9
5 5 3 2 3 4 1 3 5 4 5 5 5 5 6 4 3 3 4 2 6 8 7 9 11 11 11 10 10 10 10 10 10
7 6 6 4 3 1 3 3 4 5 5 5 5 6 5 3 2 2 2 3 6 9 9 9 11 11 11 9 11 11 10 10 10
10 10 7 5 3 1 2 3 4 5 6 6 5 6 4 2 1 1 2 3 6 9 10 10 11 12 11 11 12 12 11 11 11
13 12 9 5 3 2 3 3 5 6 7 7 5 5 3 0 2 3 4 4 4 5 8 12 13 14 14 14 14 13 13 13 14
15 13 10 5 4 3 4 5 6 9 11 11 8 7 5 5 2 3 4 5 6 6 6 10 15 16 16 16 16 15 15 17 18
15 14 11 7 5 5 5 7 8 11 13 11 10 13 3 7 4 3 6 7 8 9 9 13 19 21 18 18 17 15 17 20 19
17 15 12 9 6 6 5 7 8 11 14 10 13 4 2 6 4 1 13 8 7 11 14 19 24 28 23 18 17 17 21 22 21
17 15 12 9 6 7 7 4 8 12 17 10 9 4 4 2 5 9 11 7 12 14 18 21 26 24 23 22 21 20 23 23 22
16 14 12 9 8 7 8 8 5 8 15 7 2 4 3 3 14 8 7 14 11 21 21 26 24 22 22 21 22 22 22 22 23
15 13 11 10 7 8 8 8 8 6 10 12 6 2 2 8 6 11 10 8 15 20 20 20 22 20 20 20 20 20 23 24 27
15 13 11 9 8 8 7 8 8 7 6 3 6 2 3 3 5 4 10 7 20 18 19 21 19 19 17 19 21 24 24 26 29
15 12 10 9 8 7 7 6 6 7 4 3 3 2 5 5 6 9 10 22 20 20 18 21 17 17 18 19 20 23 28 29 30

GFSFLT1_925_spd_030.txt.gz
Wind_Speed
7 5 4 6 8 8 8 7 5 5 4 4 3 3 4 5 5 5 5 5 7 7 7 8 7 7 9 9 10 8 9 10 9
8 4 3 4 5 6 5 5 4 4 4 4 3 3 4 4 5 5 6 5 8 7 8 8 8 9 10 12 13 12 11 11 12
10 6 3 3 4 4 4 4 3 3 3 3 3 4 4 5 5 6 6 9 9 9 9 9 10 11 12 13 13 13 14 13 13
10 8 4 3 3 2 3 4 4 3 3 4 6 6 7 5 7 6 7 10 9 11 10 12 11 11 14 14 15 16 17 16 15
10 7 4 3 3 2 2 3 3 4 4 4 5 6 6 4 4 4 5 7 8 8 8 8 9 11 11 11 10 14 18 17 18
5 7 6 4 2 1 1 3 3 2 4 6 6 6 4 4 3 4 4 6 6 6 7 8 9 10 12 12 12 10 8 8 12
7 7 6 4 3 2 2 1 1 4 3 4 6 4 4 4 4 4 3 4 6 5 7 7 8 9 10 11 11 10 10 9 7
7 6 4 2 2 2 2 1 3 4 3 4 5 5 5 4 3 4 3 4 5 5 6 8 8 9 10 9 9 9 9 9 10
7 6 5 4 4 4 1 2 3 4 5 4 4 5 5 4 3 5 3 2 5 5 6 8 10 10 9 8 10 11 10 10 10
8 7 5 5 4 2 2 2 3 3 4 4 4 5 4 4 3 2 2 4 5 7 7 9 10 10 10 9 11 12 11 11 11
11 11 9 7 5 3 2 2 2 3 4 5 5 5 4 3 2 2 1 2 3 7 8 9 10 11 11 11 12 13 12 12 13
16 15 13 9 5 3 2 2 2 3 5 5 5 5 4 3 2 2 2 2 1 2 5 8 10 12 14 14 14 15 14 14 15
18 16 12 9 6 4 3 1 2 4 6 6 5 5 6 6 4 2 1 1 2 5 7 8 11 13 15 15 15 15 15 15 18
19 16 12 8 7 5 3 2 3 5 7 7 6 8 6 6 5 3 1 2 3 4 9 13 14 16 16 14 14 14 15 17 19
20 15 13 10 8 6 4 4 5 6 9 7 8 2 2 5 6 4 3 3 2 6 7 11 14 16 15 14 15 16 17 19 20
18 14 12 10 8 7 5 4 4 6 10 7 5 3 2 5 6 5 7 5 7 6 12 13 16 16 17 16 15 18 17 19 20
20 14 13 11 10 8 6 4 2 4 9 6 4 3 3 1 7 6 1 9 6 12 14 16 16 18 17 16 19 17 18 21 23
19 18 13 11 9 8 6 5 4 3 4 5 4 2 2 10 6 5 9 6 12 15 17 18 18 19 17 16 17 16 20 23 24
19 16 13 11 10 8 6 5 4 2 3 1 3 2 5 3 5 4 9 9 13 18 18 18 22 17 17 18 18 19 22 27 28
17 15 13 11 9 8 6 5 3 3 1 3 4 4 6 8 6 9 9 19 18 18 13 23 16 17 18 19 17 20 27 28 28

GFSFLT1_925_spd_033.txt.gz
Wind_Speed
8 7 8 9 10 9 9 7 7 6 5 5 3 3 4 5 4 5 6 5 9 8 7 6 6 7 7 7 8 10 8 8 9
7 5 6 7 7 7 6 6 5 5 5 4 3 3 4 5 4 5 5 4 10 9 8 8 7 8 9 9 10 12 12 10 10
8 5 5 5 5 5 4 4 4 4 4 4 4 5 6 7 6 6 7 8 10 10 10 9 10 11 11 10 11 12 13 12 12
11 8 5 4 4 4 4 4 3 3 3 4 5 6 7 5 7 6 5 8 10 9 9 9 9 10 9 11 8 12 17 15 15
11 8 6 5 4 3 3 3 3 3 3 4 6 7 5 6 5 4 6 9 9 9 9 9 10 10 12 13 11 10 11 8 11
8 7 5 4 3 2 1 2 3 4 5 7 7 6 5 5 4 4 5 7 7 7 9 9 10 11 12 12 11 11 11 10 8
8 7 6 4 3 1 1 1 4 5 3 5 7 5 5 4 4 4 4 7 6 6 6 8 9 10 11 10 11 11 11 12 12
8 6 6 3 2 3 2 1 2 3 4 5 5 5 5 4 3 6 4 4 5 5 7 9 10 10 10 10 11 12 11 12 12
10 9 7 5 4 4 1 1 2 3 4 4 5 5 5 4 3 5 5 3 5 5 7 8 9 10 9 9 11 12 12 11 11
11 9 7 7 5 4 2 0 2 3 4 5 6 6 5 5 4 4 4 3 4 6 7 8 9 9 10 10 11 12 12 11 12
10 10 10 8 6 4 1 0 2 3 5 7 7 7 6 4 3 2 3 2 1 5 6 7 8 9 11 11 12 13 13 12 12
13 12 13 10 8 6 3 1 2 3 5 7 7 6 6 4 3 2 1 4 4 3 5 7 8 9 11 13 13 14 14 14 14
15 16 14 9 7 5 4 2 2 3 5 6 6 6 6 6 4 3 3 2 2 7 9 11 12 13 13 13 13 13 14 14 15
17 15 11 9 8 6 4 3 2 3 5 7 6 6 6 5 5 5 4 4 4 5 9 13 13 11 14 13 14 14 15 16 16
18 16 13 9 7 7 5 4 3 3 6 7 7 4 3 3 5 6 5 6 5 6 8 9 11 13 13 14 14 13 15 15 16
20 19 14 10 7 8 6 5 4 4 8 5 5 5 4 5 7 6 7 8 7 8 10 11 14 13 14 13 12 16 14 15 18
21 18 16 12 9 9 6 5 4 4 7 5 5 2 4 3 3 6 4 7 8 8 11 15 15 14 16 13 16 13 14 17 19
21 17 14 13 9 9 7 5 4 3 3 5 4 2 2 8 5 6 7 8 10 12 16 17 16 17 18 15 14 15 17 17 22
22 18 15 12 9 9 7 6 5 2 1 0 2 2 3 2 4 3 8 12 10 17 18 18 18 21 16 16 17 18 18 22 27
22 20 16 13 10 9 7 6 4 3 1 1 2 4 5 8 6 7 8 16 16 18 18 15 21 17 17 18 18 17 21 26 28

GFSFLT1_925_spd_036.txt.gz
Wind_Speed
11 11 12 13 13 12 11 10 9 8 7 6 4 5 5 7 7 3 6 2 9 8 7 6 5 5 6 5 6 7 8 7 7
10 10 10 11 11 10 10 9 8 7 7 7 6 6 6 7 8 6 5 5 10 8 7 7 6 7 7 6 7 8 8 9 8
7 8 8 9 8 8 9 8 7 7 6 5 5 6 6 5 5 3 3 6 10 10 11 11 10 9 11 7 8 7 9 11 10
10 7 7 7 7 7 7 6 6 5 4 5 6 6 7 7 7 2 5 9 9 9 10 10 10 12 15 12 11 11 13 8 9
14 9 7 7 6 6 6 5 4 4 5 6 7 7 8 8 6 3 4 7 7 8 9 9 11 12 13 12 12 13 13 14 12
13 10 7 7 6 5 4 4 5 5 6 9 8 8 6 7 4 4 5 5 6 7 8 10 10 11 11 11 12 12 13 14 13
13 10 8 6 6 3 3 4 6 6 3 6 5 3 3 6 3 4 4 6 6 6 8 9 10 10 9 10 11 11 11 11 11
13 8 9 7 6 5 4 6 4 0 2 2 5 5 3 5 4 4 5 3 4 5 8 8 9 9 8 9 10 11 10 10 9
14 9 10 9 8 8 5 6 2 3 2 4 2 4 4 3 6 5 5 3 6 6 7 7 8 9 9 9 9 10 10 10 9
15 15 16 13 10 6 6 5 2 0 1 2 4 3 3 2 3 5 5 1 5 6 6 7 8 8 9 9 10 11 11 11 11
17 16 13 11 10 9 8 5 2 1 3 3 4 4 3 2 2 4 4 3 2 2 3 5 7 8 9 11 12 12 12 12 12
18 17 15 14 12 10 7 4 2 0 3 2 5 4 5 3 2 3 1 3 4 4 6 7 9 10 11 12 12 12 13 13 13
21 19 18 14 12 10 8 5 2 1 2 3 2 5 3 4 5 5 3 1 2 5 8 11 12 11 11 12 13 13 13 14 14
23 21 17 13 12 10 7 6 5 1 3 4 3 5 8 3 6 4 6 6 7 7 6 11 12 10 13 12 14 13 12 14 14
23 20 19 17 14 11 8 5 5 3 5 4 3 5 4 3 5 5 6 5 9 9 9 8 9 12 13 13 13 12 15 13 14
24 24 22 18 15 12 9 8 5 4 6 4 4 4 5 3 5 8 6 7 7 5 5 9 14 18 14 14 14 14 13 14 15
26 26 23 20 19 16 11 7 6 5 7 4 2 3 1 4 4 8 8 4 7 7 9 14 19 15 16 19 15 14 14 16 17
26 26 23 20 17 16 12 10 6 6 4 6 3 2 1 5 2 7 7 7 8 11 15 16 15 17 18 22 15 15 16 18 19
27 26 22 19 17 15 12 9 9 7 7 4 3 1 1 1 4 3 7 16 8 14 13 19 22 23 23 20 17 16 18 19 23
27 25 24 21 17 14 13 10 9 8 7 4 2 1 3 7 6 4 4 16 20 19 20 18 20 24 22 20 22 19 19 21 25

GFSFLT1_925_spd_039.txt.gz
Wind_Speed
15 15 16 15 14 13 12 11 10 9 9 7 7 7 7 7 7 5 5 4 7 6 6 7 5 3 3 4 3 4 5 6 4
13 14 14 14 13 12 11 10 10 10 10 9 8 7 6 3 8 7 5 5 8 5 6 4 5 7 4 4 3 4 6 6 6
12 12 12 12 11 11 11 10 10 9 8 7 6 5 5 7 6 4 5 7 8 9 9 9 11 11 8 14 7 5 4 6 7
12 12 11 11 11 11 11 10 8 7 7 6 6 6 6 4 7 6 7 8 8 8 8 10 12 12 12 13 13 13 13 13 12
12 11 10 10 10 11 9 8 8 8 7 7 7 7 9 8 6 6 6 7 7 8 9 10 10 10 11 11 12 11 13 13 13
17 12 11 11 10 9 8 8 8 8 8 8 5 6 7 4 2 3 4 5 6 7 9 9 9 10 10 10 11 11 11 12 11
17 13 10 10 9 9 8 8 7 6 6 4 2 1 1 2 1 1 2 6 7 8 9 9 9 9 9 9 10 10 10 10 9
14 13 11 11 9 9 9 9 6 4 4 3 2 3 1 1 1 2 3 4 6 7 8 8 8 8 8 9 9 10 10 9 9
17 12 13 12 11 10 9 8 5 4 1 1 1 2 2 2 2 2 2 4 7 6 7 8 9 9 8 8 9 9 9 8 8
18 15 17 15 14 9 11 9 6 4 2 1 1 0 1 2 2 1 2 1 7 6 6 7 7 8 9 9 9 9 9 9 8
21 21 18 19 16 14 12 10 7 4 2 2 0 1 1 1 3 1 1 0 3 2 4 5 7 8 9 9 10 10 10 10 10
23 21 26 18 15 14 14 10 7 4 2 2 1 1 1 2 3 3 2 1 1 1 2 5 7 7 8 10 10 10 10 10 11
24 27 23 19 17 15 13 10 7 4 2 1 2 2 2 2 5 4 3 2 2 3 4 6 8 8 9 10 11 11 10 11 12
27 26 23 20 19 16 13 10 7 4 1 0 2 3 3 3 7 6 5 4 4 5 7 8 8 7 10 11 12 11 11 13 11
28 27 23 22 22 18 14 11 8 4 0 1 2 3 0 3 6 6 6 5 5 7 6 6 8 12 15 11 11 13 12 12 12
32 27 25 24 23 19 16 13 9 5 1 1 1 3 3 2 4 6 7 5 5 5 5 6 11 17 16 16 14 14 13 12 14
33 28 28 26 23 20 18 16 11 5 3 3 2 2 1 4 5 8 8 4 3 4 5 10 15 16 17 19 18 13 12 15 16
33 30 30 27 25 23 20 16 12 9 4 4 3 2 3 3 1 7 7 3 3 4 7 10 14 17 18 19 23 18 13 16 17
31 30 30 28 24 22 20 17 13 11 9 6 4 2 2 2 3 2 6 3 1 8 14 18 16 15 20 22 21 20 16 18 19
29 33 31 28 25 22 19 17 14 12 11 8 5 4 4 4 3 3 4 10 17 19 14 16 20 13 17 19 20 19 17 20 23

GFSFLT1_925_spd_042.txt.gz
Wind_Speed
14 14 14 13 11 11 10 9 9 9 9 9 9 8 5 6 5 5 6 5 4 4 3 6 3 2 1 2 3 3 4 4 3
14 15 14 14 12 11 10 10 10 10 10 9 7 6 3 4 8 7 6 6 7 7 6 6 7 11 8 2 1 3 6 4 4
14 14 14 13 12 12 11 12 11 9 8 7 5 4 5 6 9 8 9 4 7 8 8 9 13 14 13 16 13 15 15 8 4
13 12 12 11 12 11 11 10 9 8 7 6 6 5 5 7 8 9 9 7 8 7 10 11 12 10 12 13 12 13 14 15 13
13 12 11 11 11 11 10 9 9 8 8 7 6 7 9 9 7 7 8 8 8 9 9 10 9 8 10 11 11 12 12 13 14
14 12 12 11 11 11 9 8 9 9 8 8 7 5 6 6 5 5 5 7 7 8 9 9 8 8 9 10 10 10 9 10 10
18 13 12 12 11 10 9 9 9 8 6 5 4 1 3 4 5 5 5 6 9 7 8 8 8 7 8 9 10 9 9 9 10
21 17 14 13 12 11 10 10 8 6 6 4 4 3 4 4 3 3 2 6 8 7 8 8 8 8 8 8 8 9 9 8 8
22 19 17 15 14 12 12 10 7 6 5 4 4 3 3 3 2 2 2 8 7 7 7 8 8 8 8 8 8 8 8 8 8
22 20 18 17 16 14 13 12 9 7 5 4 2 2 3 3 2 2 3 7 9 7 7 7 7 7 7 7 7 8 8 8 8
27 22 20 20 18 15 14 13 10 8 6 4 3 2 2 3 3 4 3 5 6 6 6 5 5 5 6 7 7 8 8 8 9
28 24 23 22 20 17 16 14 10 7 5 4 4 4 2 3 5 5 4 4 4 4 3 4 5 5 6 7 8 9 8 9 10
28 27 26 23 23 21 19 15 11 8 6 5 5 4 4 4 6 7 5 3 3 2 1 2 3 4 6 8 10 9 8 10 9
29 28 25 29 25 22 19 16 12 9 7 5 5 5 4 6 8 8 6 4 1 1 2 4 4 5 8 9 8 9 10 10 9
31 29 32 29 26 22 19 16 14 10 7 5 5 6 4 5 8 7 8 5 3 3 4 4 5 8 12 9 9 9 10 10 9
33 33 34 30 28 25 21 17 14 9 6 6 3 5 6 6 7 8 9 7 6 5 5 4 6 10 12 14 12 11 11 9 12
37 38 35 31 28 25 24 22 16 7 8 5 4 1 3 6 7 9 9 7 6 5 4 5 8 10 13 13 13 16 11 11 12
42 39 37 34 31 29 26 23 19 13 8 7 4 2 3 0 3 8 9 8 6 6 4 7 11 10 11 14 16 15 13 12 14
44 40 38 36 33 29 27 23 19 14 11 8 5 2 3 3 1 3 9 5 6 4 11 12 12 14 10 11 13 14 14 16 18
43 40 38 36 33 29 27 24 19 16 14 9 7 5 4 4 3 2 3 7 10 14 10 17 8 10 11 14 12 11 12 15 19

GFSFLT1_925_spd_045.txt.gz
Wind_Speed
12 13 13 11 10 9 9 7 6 7 9 9 8 6 4 3 5 5 5 7 6 6 5 5 4 4 1 1 2 3 5 4 4
12 13 12 12 10 9 8 8 8 9 9 8 6 5 3 6 7 6 7 8 10 11 11 11 7 11 14 5 4 3 5 3 5
13 13 12 11 10 9 9 10 10 9 7 5 4 4 3 7 8 8 7 7 9 9 8 11 13 15 15 14 15 16 13 13 14
14 13 12 12 11 11 10 10 9 7 6 5 5 6 8 8 9 8 7 6 9 10 11 11 11 10 11 12 13 14 12 11 9
14 13 12 12 12 11 10 9 8 7 5 5 5 5 7 7 6 7 7 6 9 9 10 10 10 10 10 10 10 11 11 11 12
14 13 13 12 12 11 9 9 8 8 7 6 6 6 7 6 6 6 6 8 8 9 9 9 7 7 9 10 10 10 10 9 10
15 13 13 13 13 11 10 10 10 8 6 5 4 3 4 4 5 7 5 6 8 8 8 8 8 7 9 9 10 9 9 8 9
19 16 15 15 14 13 12 11 9 7 6 4 3 2 4 4 4 3 4 6 7 6 7 8 7 8 8 8 8 8 8 8 8
24 21 18 17 15 14 12 12 10 7 7 5 3 3 3 4 3 4 6 9 7 7 7 8 8 8 7 7 7 8 8 8 8
25 23 20 18 16 15 14 12 10 8 6 5 4 3 4 5 4 4 5 9 8 7 7 7 6 6 6 6 7 7 7 8 8
25 23 22 19 17 15 14 13 11 9 6 6 4 3 4 5 5 5 5 6 7 7 6 5 4 4 5 6 6 6 6 7 8
26 25 24 21 19 18 16 15 13 10 8 7 7 5 4 5 6 5 5 6 6 5 5 4 4 4 5 5 6 6 5 7 7
28 29 26 22 22 20 18 17 14 11 9 7 7 7 6 6 7 7 7 5 5 4 2 0 2 3 5 6 6 7 7 7 7
32 29 28 25 25 24 22 20 16 13 10 7 7 7 6 6 8 9 8 6 4 4 2 2 1 2 6 6 6 7 8 8 8
33 31 29 29 26 26 24 22 17 13 11 8 7 8 7 6 8 9 9 8 5 5 3 2 2 4 7 7 8 8 11 10 8
34 33 32 32 32 31 27 23 17 13 12 8 5 6 7 7 9 9 10 9 8 7 6 5 5 8 8 10 10 10 12 10 11
39 38 37 35 36 33 31 27 20 13 14 7 4 1 4 9 9 10 11 11 10 9 7 7 7 9 11 11 11 13 12 12 12
42 42 41 39 39 38 35 30 25 17 15 13 5 2 4 2 6 9 11 11 10 9 8 6 9 11 12 12 12 11 12 13 14
42 43 42 43 43 40 38 32 27 21 16 12 12 6 4 3 1 4 9 10 10 9 7 9 11 11 9 9 9 9 10 12 14
42 44 44 43 44 40 36 32 28 25 20 12 8 7 5 4 3 2 3 9 11 12 11 10 8 7 6 9 10 11 13 16 18

GFSFLT1_925_spd_048.txt.gz
Wind_Speed
13 13 13 11 12 10 9 8 7 8 10 10 9 7 6 5 7 7 9 8 5 6 4 4 12 7 5 6 2 4 5 2 2
13 13 14 11 10 9 8 7 9 9 9 8 6 5 6 7 8 8 10 11 12 13 15 15 18 21 12 14 14 15 8 8 3
13 13 12 11 9 9 9 10 10 9 7 6 5 4 4 7 8 8 9 8 10 10 12 14 14 14 11 13 14 15 15 17 18
12 13 12 11 10 9 10 9 8 7 5 5 5 5 8 8 9 8 6 9 11 11 11 11 13 13 12 12 12 13 12 12 10
12 12 12 11 11 10 10 9 8 6 5 5 6 7 8 7 8 7 7 9 10 10 10 10 12 12 11 12 12 12 12 12 12
11 11 11 11 11 10 9 9 7 6 6 7 7 8 8 7 7 7 8 8 9 8 9 9 9 9 10 11 11 11 11 11 12
12 11 11 11 10 9 8 8 8 7 6 7 7 5 5 6 6 8 6 9 9 8 8 9 9 9 9 9 9 9 9 9 9
14 12 12 12 12 11 10 9 9 8 5 5 5 5 6 6 6 6 9 9 8 8 9 8 8 8 8 8 8 8 8 8 8
18 16 14 14 14 12 11 10 9 8 7 5 4 4 5 5 5 5 8 9 8 8 7 8 8 7 7 7 7 7 7 7 7
20 20 17 16 15 14 12 12 10 9 8 6 4 4 4 5 5 6 8 10 8 7 7 7 6 6 6 6 7 7 7 7 7
22 24 22 19 17 15 13 13 12 10 8 7 6 5 5 6 6 6 8 8 8 8 6 5 5 5 5 5 6 5 6 6 6
23 25 25 22 19 17 16 15 13 12 10 8 6 5 5 6 7 7 8 8 8 7 6 5 4 4 5 4 5 5 5 6 6
27 27 26 23 21 20 19 18 16 14 11 9 8 7 6 7 8 8 8 8 8 8 5 2 4 4 4 4 4 5 5 5 7
33 31 27 26 25 25 23 21 19 16 13 10 9 8 8 8 9 10 10 9 8 7 6 3 3 2 2 3 5 5 6 7 7
37 35 31 30 28 27 26 24 21 17 14 11 10 9 9 9 10 12 12 10 9 7 6 5 4 3 3 4 5 6 7 8 7
37 37 35 33 35 33 30 27 23 18 17 12 7 8 8 8 11 13 13 12 11 9 8 7 7 7 7 8 9 7 9 9 9
38 38 39 37 35 34 34 33 27 18 20 9 5 1 4 10 11 13 14 14 13 12 10 10 9 9 10 11 12 12 12 9 10
39 40 40 38 38 40 39 36 32 24 22 15 6 2 4 3 8 12 13 14 14 14 12 11 10 11 12 11 10 8 8 9 11
41 42 42 41 40 41 42 40 34 23 18 19 17 7 5 3 1 6 11 13 13 13 13 11 11 12 10 8 6 7 9 10 12
43 44 44 43 43 43 43 42 39 35 29 24 13 14 8 6 3 3 5 12 13 14 13 12 11 10 8 7 8 9 11 14 17

GFSFLT1_925_spd_051.txt.gz
Wind_Speed
12 11 12 12 12 11 11 10 10 11 11 10 9 8 7 8 8 10 11 6 6 8 5 8 10 10 7 6 0 1 2 2 2
11 14 12 11 10 10 9 9 10 11 10 9 8 6 7 8 8 9 9 10 11 14 15 16 18 15 16 16 17 17 16 9 7
12 15 12 12 10 9 9 10 11 10 9 7 6 6 7 9 9 8 8 10 10 12 12 12 12 10 10 13 14 14 15 18 18
12 12 12 10 9 10 11 11 9 8 7 7 6 7 9 9 9 8 7 10 11 10 11 12 12 13 12 11 13 13 14 11 13
12 12 11 10 10 11 11 9 8 7 6 6 7 9 9 8 7 6 7 9 9 8 9 11 12 12 12 11 12 12 12 12 13
11 11 12 11 10 10 9 8 6 6 6 7 8 8 7 7 8 7 7 8 8 8 8 9 10 11 11 11 11 11 11 11 11
12 12 12 12 10 9 9 8 6 6 7 8 7 6 6 6 7 7 6 8 8 8 8 9 9 9 10 10 10 10 9 9 10
14 13 12 13 12 12 10 9 8 7 6 6 5 5 5 6 7 7 8 9 7 8 8 8 8 8 9 9 9 9 9 9 9
16 14 14 15 14 13 11 10 9 8 7 6 5 6 6 7 7 7 11 10 8 7 8 8 8 7 7 7 7 7 8 8 8
19 17 16 15 15 14 13 12 11 10 8 7 6 6 6 7 7 7 11 11 9 7 8 7 6 6 6 6 6 6 6 7 7
22 20 19 17 17 16 15 14 14 12 11 9 7 7 7 8 8 9 10 10 9 9 7 6 6 5 5 5 5 5 5 6 6
25 23 23 23 20 18 17 16 15 14 12 10 9 8 8 9 9 10 11 10 9 9 7 6 5 5 5 4 4 4 4 4 5
28 26 24 26 24 22 20 19 18 17 15 12 11 10 10 10 10 11 11 12 11 9 8 6 6 5 4 4 3 3 4 4 5
32 29 26 27 27 25 23 22 20 19 16 13 12 11 11 11 12 12 13 12 12 12 9 8 8 6 3 2 2 3 4 5 6
34 33 31 29 30 29 27 25 23 20 17 13 12 11 12 13 13 14 15 14 13 12 11 9 9 7 5 4 2 3 5 7 7
35 37 37 35 34 33 30 28 26 21 19 13 8 8 11 12 14 15 17 16 15 14 13 11 10 9 7 7 8 8 7 9 9
37 38 40 40 37 34 35 34 26 21 22 9 5 3 6 12 14 17 18 18 17 15 14 14 12 11 9 10 11 11 10 7 8
40 40 40 42 41 40 39 39 35 25 26 18 7 3 4 3 10 16 18 19 19 18 16 16 14 12 11 10 9 6 4 6 7
41 42 42 42 43 41 42 43 41 33 27 25 22 11 4 3 3 8 16 18 19 20 20 18 15 13 10 8 7 6 6 7 9
42 42 43 43 44 43 45 44 43 43 31 31 17 19 14 9 4 3 7 16 19 19 19 17 15 12 10 8 7 8 7 9 12

GFSFLT1_925_spd_054.txt.gz
Wind_Speed
8 9 11 13 12 13 11 9 8 10 10 9 8 7 8 9 7 8 7 6 6 7 7 7 11 7 6 2 3 2 4 3 3
7 9 9 10 8 9 8 8 10 10 9 8 7 6 8 6 7 7 9 10 13 14 14 15 16 14 14 14 16 17 17 9 4
9 10 11 10 9 8 8 8 9 8 7 6 5 6 8 6 6 6 7 9 10 10 11 10 10 10 11 11 11 12 16 16 17
10 12 9 9 8 8 8 8 8 7 6 5 5 6 8 5 5 5 6 10 10 8 11 11 10 11 12 11 11 12 12 11 12
11 12 10 9 8 9 9 8 7 6 5 5 6 7 7 4 5 5 6 9 8 6 8 9 10 10 11 11 11 12 12 12 10
10 11 10 9 9 10 9 8 7 5 6 6 7 8 4 4 4 4 6 7 7 8 8 8 9 10 10 10 10 10 10 10 11
11 11 13 11 10 10 9 8 7 7 6 7 7 5 5 4 4 4 7 8 8 7 7 7 8 8 9 9 9 9 9 9 9
11 10 11 11 12 10 9 8 7 8 8 7 6 5 5 4 4 5 9 9 7 7 7 7 7 7 8 8 8 7 8 8 8
13 13 13 13 13 12 11 10 9 8 7 7 6 5 5 5 5 4 12 10 8 7 7 7 6 6 6 6 7 7 7 7 7
16 15 14 14 14 14 13 11 10 9 8 7 6 6 5 5 5 4 12 12 8 7 8 7 6 5 5 5 5 5 6 6 6
18 17 16 16 15 15 14 13 11 10 8 7 7 7 6 6 6 5 8 12 9 9 7 6 6 5 5 4 3 3 4 5 5
19 18 18 18 16 16 15 14 12 11 9 8 8 7 7 7 7 8 8 9 10 10 8 7 6 6 5 3 3 2 2 3 4
21 19 19 18 18 18 17 16 14 13 12 10 9 8 8 8 9 9 10 10 9 11 11 9 7 6 5 4 3 1 2 3 4
24 22 20 19 20 20 19 17 16 15 13 12 10 9 9 9 10 10 11 11 12 11 13 11 12 9 6 4 2 1 1 4 5
26 25 23 22 22 22 21 19 17 16 14 12 10 9 9 10 11 12 12 12 13 12 11 11 10 12 10 8 5 3 3 4 5
27 28 26 26 26 25 24 21 19 16 15 11 9 9 10 11 12 12 13 13 14 13 13 12 11 11 12 10 9 8 7 6 7
29 31 31 30 28 27 27 26 20 19 20 13 9 4 8 14 15 14 15 15 15 15 15 14 13 11 9 10 11 10 9 6 6
32 32 31 31 31 31 32 30 26 22 21 21 10 4 6 9 11 16 16 16 16 15 15 14 13 11 9 9 8 9 8 6 5
32 33 31 30 31 30 34 34 33 26 23 19 21 11 3 4 4 8 17 17 17 16 16 15 14 13 10 11 10 9 7 5 6
34 30 32 31 31 32 31 32 35 36 28 26 14 15 10 6 3 3 7 15 17 19 17 15 14 12 11 8 9 10 9 6 9

GFSFLT1_925_spd_057.txt.gz
Wind_Speed
10 12 13 13 16 13 10 8 8 8 8 8 7 7 8 8 7 11 8 10 8 12 13 12 9 10 11 4 4 4 3 4 5
10 9 10 10 10 9 8 7 8 8 7 6 6 5 7 5 8 11 12 13 15 15 17 16 15 14 15 16 18 21 15 8 8
9 8 7 6 7 7 6 7 7 7 6 5 5 7 8 5 6 8 10 11 12 11 11 11 9 11 12 13 12 13 15 16 16
8 8 7 8 7 6 6 7 6 6 5 4 4 6 6 3 6 7 10 10 11 9 10 10 11 11 12 11 12 13 13 14 14
8 10 8 8 7 6 6 6 6 5 4 4 5 7 7 4 4 6 8 8 8 8 8 9 10 10 11 11 11 12 13 13 13
6 9 9 9 7 8 7 6 5 4 4 4 6 7 2 3 3 4 5 6 7 7 8 8 9 10 10 10 10 11 12 12 12
9 9 10 10 9 9 10 8 6 6 4 5 7 3 4 3 3 5 4 7 7 7 7 7 8 8 9 9 9 10 10 10 10
11 9 11 10 12 10 10 10 8 7 7 6 6 4 3 3 3 4 7 8 6 6 7 7 7 7 8 8 8 9 9 9 9
12 12 12 13 13 14 12 10 10 9 9 8 7 6 5 5 4 5 10 9 8 7 7 7 6 7 7 7 7 8 8 8 8
14 14 13 14 14 15 14 12 11 11 10 9 8 7 6 6 5 5 12 11 8 8 8 7 6 6 6 6 6 7 7 7 7
16 15 15 15 15 15 15 14 13 12 11 10 9 8 8 7 7 6 10 11 9 8 8 8 7 6 5 5 5 5 6 6 5
18 18 18 17 16 16 15 15 14 13 11 11 10 9 9 8 8 8 9 12 12 10 9 8 8 7 5 4 4 3 3 3 3
21 21 20 19 18 18 17 16 15 14 13 13 12 11 10 10 11 11 10 11 10 14 11 10 9 9 7 6 4 3 2 2 1
22 22 21 20 20 21 19 18 18 17 16 15 13 12 11 12 12 12 13 13 13 11 15 14 11 11 8 7 6 4 2 1 2
26 24 23 22 22 21 24 21 20 19 17 15 13 12 12 13 14 14 15 15 17 15 14 17 17 15 11 9 7 5 3 3 3
27 27 25 25 25 25 26 24 21 20 17 14 12 12 13 14 16 16 17 18 18 19 17 14 14 16 16 14 13 11 8 6 6
27 29 29 28 27 27 26 28 23 22 22 17 12 4 10 17 19 19 19 19 20 21 21 19 17 13 12 15 16 14 11 8 4
26 28 29 28 28 28 29 30 29 24 24 25 10 4 5 10 17 21 20 20 22 23 22 22 20 19 15 15 15 14 12 9 5
33 29 29 30 28 28 29 30 32 26 25 24 27 17 4 3 3 12 19 19 21 22 22 24 24 22 19 16 14 13 11 9 5
26 29 31 30 30 33 31 30 33 34 26 28 16 20 13 9 4 4 7 17 20 20 20 23 20 21 19 17 18 17 14 10 6

GFSFLT1_925_spd_060.txt.gz
Wind_Speed
12 13 14 15 16 13 11 10 11 11 11 10 11 12 10 13 12 13 11 13 19 19 15 13 18 22 18 18 17 8 8 7 7
12 14 15 14 13 11 10 10 10 10 9 9 9 11 10 12 10 12 13 15 16 17 16 12 14 15 15 16 20 19 14 17 14
10 11 11 10 9 9 9 9 10 9 7 7 9 10 7 11 6 5 9 11 12 13 11 10 11 12 13 14 13 12 14 15 16
10 10 8 8 8 8 8 9 8 7 6 5 7 8 7 8 8 9 9 11 10 11 11 11 11 12 13 13 14 13 13 14 13
9 9 8 8 8 8 8 8 7 5 5 5 6 9 8 7 5 5 8 9 9 9 10 10 10 11 12 12 12 13 13 13 13
6 8 7 9 8 8 8 6 6 4 4 6 9 10 5 4 8 6 5 8 8 7 8 9 9 10 10 11 12 12 12 12 12
8 9 8 8 8 9 9 7 6 5 4 7 9 7 4 4 3 5 3 7 7 7 7 8 9 9 10 10 11 11 10 11 11
11 9 9 12 11 11 11 9 7 8 9 4 8 3 7 5 5 4 3 8 7 7 7 7 8 8 9 9 9 9 10 10 10
13 11 10 13 13 13 10 9 9 8 9 7 7 10 9 6 7 8 7 9 9 8 8 8 8 8 8 8 8 8 9 9 9
14 16 13 13 18 14 18 15 10 13 11 11 10 10 10 11 9 8 8 11 10 9 10 9 9 8 8 8 7 8 8 9 8
17 18 18 16 18 17 14 18 15 14 14 13 13 11 11 12 11 11 12 14 12 10 10 10 9 9 8 8 7 7 7 7 7
19 20 20 20 19 18 17 16 17 16 16 16 15 14 14 14 14 11 13 15 15 13 13 12 11 10 9 9 8 7 6 5 5
21 22 22 21 22 22 19 18 17 19 18 17 17 17 16 15 15 16 15 16 15 18 16 14 14 13 12 10 9 8 6 5 4
26 25 24 24 22 24 25 21 22 20 18 19 18 20 18 18 17 18 17 16 16 17 20 19 18 16 14 13 12 10 8 5 3
27 28 27 26 26 25 27 25 23 23 22 20 20 21 19 19 20 21 21 20 18 19 19 21 21 22 17 16 14 12 10 7 4
29 31 31 29 30 32 28 30 25 25 23 21 18 16 20 20 22 24 24 25 26 23 22 22 22 24 20 18 16 14 10 8 6
28 31 33 34 31 30 31 33 30 28 29 20 13 2 9 22 26 25 26 27 27 27 26 23 22 24 23 22 20 17 14 11 8
20 22 28 29 28 31 32 33 33 28 31 32 13 3 5 6 20 32 30 28 29 30 30 27 22 22 21 21 23 20 17 12 8
23 31 23 28 29 32 30 33 36 27 26 34 36 20 5 4 2 13 31 30 28 30 29 29 27 26 22 21 20 19 18 16 11
23 23 23 34 29 33 34 32 28 38 26 30 28 30 21 14 3 3 8 25 30 26 29 29 29 28 28 25 22 20 16 12 11

GFSFLT1_925_spd_063.txt.gz
Wind_Speed
13 14 15 17 15 13 11 11 13 13 14 15 15 14 14 14 13 11 16 20 16 14 17 16 21 18 19 18 12 9 7 8 10
15 16 17 16 14 12 11 11 12 12 12 13 13 11 11 13 13 17 15 16 16 15 12 12 12 13 14 17 16 16 18 15 16
14 15 15 13 12 11 11 11 11 11 11 12 13 10 11 12 9 8 9 11 12 11 10 9 9 11 12 12 10 11 13 14 14
13 13 12 11 11 10 10 11 10 10 10 11 12 8 7 13 9 8 8 9 11 11 11 11 10 11 12 12 11 10 10 10 11
13 13 12 11 11 10 10 10 9 8 8 10 12 11 13 13 8 7 7 8 9 10 10 9 9 10 11 11 12 11 11 12 11
12 12 11 11 12 11 11 10 9 7 7 9 14 11 8 10 8 8 7 9 9 8 9 9 10 10 10 10 11 10 11 11 12
11 13 10 12 12 12 11 10 9 7 8 10 14 10 4 11 9 8 7 9 10 10 8 9 9 10 10 10 10 10 10 11 11
12 12 13 13 13 13 12 11 10 10 9 10 13 8 6 11 8 7 7 9 11 10 10 10 10 10 10 10 10 9 10 10 11
14 13 12 15 15 15 13 11 10 11 10 10 12 10 9 7 10 10 9 8 11 11 11 11 11 11 11 10 10 10 10 10 10
17 13 12 15 16 16 15 12 11 14 12 12 12 14 13 13 11 12 11 10 12 12 12 12 11 11 11 11 10 10 10 10 9
19 15 16 14 16 15 16 16 15 16 15 16 15 14 13 15 14 14 14 13 13 14 13 13 13 12 12 11 11 10 10 10 9
21 18 19 20 17 17 18 19 21 23 21 16 17 17 15 16 18 17 16 17 16 16 16 15 14 14 13 13 12 11 10 10 9
22 22 22 22 21 21 20 21 22 23 22 21 21 20 19 18 19 20 19 20 19 19 19 18 17 16 15 14 13 12 11 10 8
27 26 25 25 25 27 26 26 24 24 25 24 23 23 23 23 21 23 23 23 22 21 22 22 21 20 18 17 15 13 12 11 9
29 31 31 27 28 26 31 31 30 28 27 24 24 24 24 25 26 25 26 27 25 24 23 25 25 24 21 19 17 16 14 11 10
28 32 32 32 31 32 29 32 33 32 29 21 20 22 23 27 30 28 27 29 28 27 26 26 26 27 26 21 20 17 16 13 11
17 27 32 34 34 33 33 32 32 33 29 17 4 2 9 26 31 30 32 32 31 31 30 30 28 27 28 26 23 20 17 15 12
28 24 21 32 33 36 33 34 35 27 29 33 15 2 6 4 24 38 36 36 34 34 35 31 30 29 28 28 27 26 18 15 13
19 19 24 29 30 33 36 37 36 35 24 29 34 21 4 4 2 13 32 37 35 34 34 33 31 29 28 28 28 27 24 16 13
20 19 20 22 22 29 30 31 31 36 31 29 26 30 22 11 3 4 6 25 36 33 32 32 30 28 29 29 28 25 21 16 13

GFSFLT1_925_spd_066.txt.gz
Wind_Speed
14 14 17 15 12 11 10 13 15 16 16 14 12 12 12 12 15 16 14 14 12 15 17 17 15 17 15 10 7 7 8 8 10
16 16 17 15 13 10 9 12 14 15 14 13 12 9 13 16 16 17 18 16 14 12 9 10 10 11 13 13 15 13 11 13 15
16 16 16 14 12 10 9 12 13 13 14 12 11 9 11 12 11 8 7 9 8 8 8 7 7 8 10 10 9 11 13 13 13
12 13 14 13 12 10 10 12 12 12 13 12 10 8 10 8 5 5 6 7 9 9 9 9 8 8 8 9 8 9 9 9 9
11 12 11 11 11 10 10 11 11 11 12 14 10 8 11 10 8 5 5 6 8 9 9 9 8 8 9 10 10 10 10 10 9
13 14 12 11 10 9 9 10 10 10 11 14 13 10 12 11 9 7 5 5 7 7 7 8 8 8 8 9 10 10 10 11 11
14 15 14 13 12 10 10 10 9 8 9 12 15 10 8 13 11 10 8 7 8 8 7 7 7 7 8 8 9 9 10 11 11
14 16 14 14 14 14 13 12 11 9 10 11 15 11 8 11 13 11 9 8 9 9 8 8 8 8 7 8 9 9 9 10 10
16 16 15 15 16 15 15 14 12 11 10 11 14 12 10 13 14 13 11 9 11 11 9 9 9 9 8 7 8 9 9 9 10
18 17 16 15 16 17 16 16 15 14 15 14 15 15 14 13 14 15 13 12 12 12 12 11 11 10 10 10 9 9 9 9 8
24 22 18 17 17 18 18 17 17 16 18 17 17 17 17 17 17 18 18 16 15 14 14 14 13 13 12 11 11 10 10 9 9
24 26 22 18 17 17 19 18 19 20 20 21 20 20 19 21 20 20 21 19 18 17 16 16 15 14 14 13 12 11 11 11 10
25 30 27 21 20 21 21 22 24 25 26 27 25 23 22 22 23 23 23 23 21 20 18 18 18 17 16 15 14 13 12 12 11
27 31 31 26 24 25 26 26 27 28 28 29 29 26 25 25 25 26 26 26 26 24 22 22 22 21 19 17 16 15 14 13 12
28 29 29 28 28 27 28 30 28 28 28 28 29 28 28 28 28 29 29 29 30 28 26 25 27 25 24 21 19 18 16 14 13
26 31 31 30 30 32 32 31 33 32 31 23 26 28 28 29 31 31 32 33 33 32 31 29 28 28 27 26 22 21 19 17 15
26 26 24 31 34 34 34 34 32 32 31 17 3 3 13 30 35 35 36 37 36 36 35 33 31 29 29 29 27 23 21 18 15
23 24 24 27 29 33 35 35 34 27 25 27 16 1 5 2 16 34 40 39 38 37 36 36 35 33 30 29 28 24 22 18 16
21 22 23 22 25 26 29 31 34 30 23 20 33 32 12 4 4 10 24 35 36 36 37 36 36 36 34 30 27 26 26 19 16
15 21 20 20 20 21 19 19 26 29 28 25 19 26 24 14 6 11 6 15 26 37 37 38 36 36 34 32 29 27 28 22 18

GFSFLT1_925_spd_069.txt.gz
Wind_Speed
12 13 16 12 9 8 9 13 14 14 11 9 9 7 8 9 9 7 11 9 10 14 11 12 14 10 7 5 5 5 6 8 9
12 14 14 11 8 7 8 12 13 12 11 9 8 9 11 13 14 15 14 11 9 7 6 6 8 9 8 10 8 7 8 11 13
13 13 13 10 7 6 6 10 11 11 10 8 6 9 11 13 11 10 9 7 4 3 3 2 3 5 6 6 8 9 10 10 9
12 12 11 8 6 5 4 8 9 9 9 7 6 7 8 8 5 4 4 3 3 3 4 4 4 3 4 4 3 4 4 4 5
12 11 10 8 6 5 5 7 8 8 8 8 7 6 9 7 5 4 2 2 4 4 4 4 4 3 4 4 4 3 4 5 4
12 11 10 9 8 8 7 8 8 8 8 8 7 6 10 9 7 5 3 2 4 4 4 4 4 4 4 4 5 5 5 4 4
11 11 11 10 9 10 10 10 10 9 9 10 10 9 9 10 9 8 6 4 5 5 5 5 5 5 5 5 5 5 4 6 5
11 12 13 13 12 12 12 13 13 11 10 12 13 13 11 10 13 11 10 8 7 7 6 6 6 6 6 5 5 5 5 5 5
13 13 14 14 14 15 15 16 14 13 11 12 13 15 13 11 13 13 12 11 9 8 8 7 7 7 6 6 6 6 5 6 5
13 14 14 14 14 16 18 18 16 15 14 13 13 16 16 14 14 15 15 14 12 11 10 9 9 9 8 7 7 7 7 6 6
17 17 16 16 16 17 19 19 18 18 17 17 17 17 19 17 17 18 18 17 16 15 13 12 12 11 11 10 9 9 8 8 8
20 20 21 19 19 19 19 20 20 21 20 19 20 19 20 21 21 21 20 20 20 19 16 15 15 14 13 12 11 11 10 10 9
23 23 24 24 23 22 21 21 22 23 23 24 23 24 24 24 24 24 23 23 24 22 21 19 17 16 15 14 13 12 11 10 10
26 27 28 27 28 27 25 26 25 26 27 28 28 29 30 28 26 27 27 27 27 27 25 22 21 20 18 16 16 15 14 12 11
29 30 31 30 30 31 30 30 30 30 31 30 31 29 30 32 32 31 29 29 30 30 29 27 25 24 23 20 19 18 17 15 14
25 28 29 28 28 31 33 32 32 32 30 24 23 28 30 32 33 33 33 34 34 32 33 31 29 27 27 27 23 21 20 17 15
28 25 25 26 28 30 31 31 29 28 27 14 7 4 11 23 32 35 36 38 37 36 34 34 33 31 30 31 30 27 23 21 18
21 23 23 21 22 24 26 29 30 24 22 23 14 2 5 3 13 23 31 38 40 37 35 33 34 35 35 34 32 32 29 24 21
15 18 20 21 20 21 21 22 23 25 21 18 23 28 15 4 6 9 13 16 23 28 34 34 34 33 37 38 37 31 31 26 23
12 13 18 21 20 19 19 18 18 18 21 21 18 19 21 19 6 9 5 13 16 20 23 28 34 33 35 38 39 31 30 27 24

GFSFLT1_925_spd_072.txt.gz
Wind_Speed
11 12 9 7 8 9 9 10 11 10 8 7 7 6 6 5 5 10 11 12 14 12 11 13 13 8 6 5 5 5 6 7 9
10 13 10 7 6 8 8 9 10 8 7 6 6 7 8 9 13 13 11 9 7 6 4 6 8 8 9 9 6 6 7 10 11
10 11 9 6 5 6 7 8 7 6 4 4 4 5 7 9 10 9 8 4 2 2 2 4 5 4 4 7 8 7 7 8 7
9 8 9 6 4 4 5 6 5 4 3 2 2 4 5 4 2 1 1 2 2 3 2 3 2 2 3 3 2 0 1 2 2
10 10 8 7 5 3 2 4 4 3 3 3 3 3 5 4 2 1 1 3 1 2 3 2 2 3 2 3 5 2 4 5 4
9 9 8 7 6 4 3 4 5 5 6 7 7 6 7 8 5 4 3 3 1 3 2 1 1 1 1 2 3 3 3 3 3
9 9 9 8 7 6 5 5 6 7 7 8 9 9 7 8 8 7 5 3 3 4 3 3 2 1 1 2 3 3 3 4 4
11 11 11 11 9 9 8 8 8 9 9 10 10 11 11 10 11 10 9 6 5 6 5 4 3 3 2 2 2 2 3 4 4
12 12 11 12 10 10 11 11 11 11 11 11 12 12 14 12 11 11 11 10 8 8 8 6 5 5 4 4 4 4 3 4 4
11 12 11 11 11 11 12 13 13 13 13 13 14 13 14 15 13 13 13 13 13 11 10 8 8 7 7 6 6 5 5 5 5
14 13 13 12 11 11 13 14 15 15 16 17 16 17 17 16 17 16 16 16 16 15 13 11 10 10 9 8 8 7 7 6 6
16 16 15 15 14 14 14 16 17 18 18 20 19 19 19 19 20 20 19 19 19 19 18 15 14 12 12 11 11 10 10 10 9
18 19 18 16 17 19 19 19 20 21 22 23 22 22 21 22 23 23 23 23 22 22 22 20 17 15 15 14 14 14 13 12 11
21 21 21 21 22 22 24 24 23 25 26 25 26 25 26 26 27 29 27 26 26 25 24 24 22 20 19 17 16 16 15 14 13
23 25 25 25 25 26 26 28 28 28 29 28 29 30 29 29 29 29 30 31 30 29 28 26 26 25 23 20 18 17 18 16 15
20 23 25 26 26 27 27 27 28 31 30 27 25 28 29 27 29 31 31 33 34 33 30 28 28 27 27 26 24 21 20 20 19
23 24 25 25 25 25 26 25 26 26 25 14 6 3 7 17 22 24 28 31 32 34 32 29 28 29 30 30 29 27 23 22 22
18 21 22 23 22 24 23 22 22 22 20 21 12 1 4 3 8 12 16 20 24 27 29 30 30 29 31 32 32 30 28 22 23
11 15 17 18 19 20 20 19 18 18 19 16 19 22 13 2 3 4 9 16 22 22 22 22 23 26 28 29 31 33 30 31 29
9 8 10 14 17 19 18 17 16 14 15 16 13 14 16 16 8 5 5 9 12 21 20 24 21 22 24 27 29 29 30 32 28

GFSFLT1_925_spd_075.txt.gz
Wind_Speed
9 10 8 9 10 11 12 12 11 10 10 10 9 8 7 6 9 12 12 10 12 10 9 13 8 7 6 5 6 7 8 8 10
9 10 7 8 9 10 10 10 9 8 9 9 10 10 10 13 13 10 8 7 6 7 6 6 8 8 11 7 6 7 9 11 11
10 10 7 6 7 8 8 7 7 6 7 7 8 8 9 11 10 8 5 3 5 6 6 6 4 4 5 8 8 7 8 7 7
5 7 6 4 5 6 6 6 5 4 4 5 6 5 5 3 3 2 3 5 5 5 5 4 4 2 1 2 3 3 2 1 2
8 6 6 4 3 3 3 4 3 3 2 2 2 1 1 2 2 2 3 4 4 5 5 4 4 4 2 2 5 5 2 4 5
9 7 6 5 3 2 2 3 4 4 3 3 3 2 4 5 4 3 4 3 4 5 6 5 4 4 4 2 0 2 3 2 0
8 8 7 6 5 5 4 4 5 5 4 4 5 6 5 5 6 6 6 5 4 6 6 5 5 4 3 2 2 2 1 2 2
10 9 9 9 8 7 7 7 7 6 6 5 6 7 9 9 9 10 9 8 6 7 7 6 5 4 2 1 1 1 1 0 1
10 9 9 10 10 9 9 9 9 8 8 8 8 8 9 11 12 11 10 10 9 8 9 8 6 4 4 3 3 3 3 3 2
9 9 10 10 10 9 9 10 11 10 10 10 11 10 10 11 13 14 12 13 13 11 11 9 8 7 7 6 6 6 6 5 5
11 10 11 10 10 9 10 10 11 11 12 12 13 13 14 14 14 15 15 15 15 15 13 12 11 10 9 9 9 8 7 6 5
13 12 12 12 12 12 12 12 12 13 13 15 15 15 16 16 17 18 18 18 17 18 18 16 15 13 13 12 11 10 8 8 7
14 16 15 13 14 14 16 16 16 16 16 17 17 18 18 19 20 21 21 21 21 20 20 20 19 16 15 14 13 13 13 11 11
18 19 18 16 17 18 18 19 19 20 19 20 21 21 21 22 22 24 26 26 26 25 23 22 22 22 20 17 16 15 15 15 13
19 21 21 20 20 21 21 21 21 23 21 21 23 24 25 25 25 25 26 28 27 27 27 25 24 24 24 23 20 18 17 19 18
18 19 19 20 21 22 21 21 21 19 20 13 15 19 21 22 25 27 25 25 25 24 27 26 25 25 26 26 26 23 20 19 21
21 22 22 21 21 22 23 21 17 16 19 8 6 5 8 12 18 17 17 17 17 18 20 22 24 25 26 28 28 28 25 22 21
17 18 20 21 20 22 22 22 20 13 16 15 10 3 4 3 9 11 12 13 13 14 16 15 15 18 22 25 28 30 29 26 24
9 11 13 16 17 18 20 19 18 17 14 13 17 21 9 1 2 3 7 12 13 15 15 18 17 18 18 19 23 24 26 30 28
7 8 9 10 12 14 16 18 18 17 16 16 12 11 12 11 7 2 4 7 12 13 16 17 18 17 17 18 19 19 21 22 26

GFSFLT1_925_spd_078.txt.gz
Wind_Speed
10 9 9 11 11 12 12 11 11 12 11 10 9 8 8 11 9 10 11 11 10 11 10 11 8 11 7 7 6 7 8 8 10
11 8 8 10 11 11 10 9 10 10 10 11 10 11 15 10 9 8 9 9 9 8 9 5 8 9 11 8 5 7 8 8 9
10 7 6 7 9 9 8 7 7 7 8 9 9 10 12 8 6 5 5 7 8 8 8 7 4 4 3 7 8 7 5 6 6
6 6 5 6 6 6 6 5 5 4 5 5 5 6 6 4 4 4 5 6 6 7 7 7 7 5 3 2 3 4 3 4 5
6 5 5 5 4 4 4 3 3 2 2 2 2 2 1 0 2 3 2 5 5 6 7 7 6 6 4 2 4 4 2 2 3
7 7 5 4 3 2 2 2 3 2 2 3 3 0 2 2 1 1 4 3 4 6 7 7 7 6 5 3 3 4 5 6 4
7 6 6 5 5 4 3 4 4 2 3 3 4 3 3 3 3 3 6 5 3 6 7 7 7 6 6 4 3 2 1 0 1
5 5 5 5 6 4 4 4 4 5 4 4 4 5 5 5 5 6 7 7 6 7 9 8 7 7 6 5 4 4 2 1 1
6 6 6 7 6 6 5 6 6 6 6 6 6 6 6 6 7 8 10 9 9 8 9 10 9 8 7 6 5 4 3 2 1
6 6 7 6 6 6 6 6 6 6 7 8 8 8 7 7 8 8 12 11 11 12 10 12 10 10 9 8 7 6 5 4 4
7 6 6 6 6 6 6 5 6 6 7 8 9 9 9 9 10 10 10 13 13 14 14 13 14 13 11 11 10 9 7 7 6
8 7 7 7 7 8 7 7 7 8 8 9 9 10 10 10 11 11 11 11 14 14 16 17 16 16 15 13 13 12 11 9 9
8 8 9 8 8 8 9 9 10 10 10 11 10 10 10 11 12 12 13 12 13 14 16 17 18 18 17 16 15 15 16 14 12
11 11 11 10 10 10 11 11 12 12 12 13 12 13 13 13 13 14 15 16 16 15 16 19 20 21 21 19 19 18 18 19 17
12 12 13 12 13 13 14 14 14 14 14 14 15 15 15 16 16 16 16 16 14 15 15 14 16 19 22 24 22 21 20 20 22
13 13 13 13 14 15 15 15 14 15 14 12 13 13 12 15 16 16 15 14 11 9 10 11 13 14 18 22 26 25 23 22 22
13 14 14 14 14 15 15 14 14 12 11 8 7 5 10 15 9 9 7 9 7 8 7 8 10 11 12 15 20 23 26 25 25
15 16 16 15 16 18 17 15 15 15 11 11 8 3 6 3 5 7 6 6 5 7 9 9 8 9 10 13 14 16 22 26 26
10 11 12 12 14 16 17 17 18 16 13 9 15 14 8 3 2 3 5 7 7 7 9 10 10 9 9 11 13 16 17 19 22
9 9 10 10 10 11 12 13 16 18 19 16 9 10 11 11 7 3 7 5 8 12 11 10 9 8 9 9 10 15 15 15 16

GFSFLT1_925_spd_081.txt.gz
Wind_Speed
11 12 13 13 13 12 12 12 12 12 10 9 10 11 13 12 10 12 10 11 12 13 11 12 13 14 12 10 9 10 9 10 11
10 10 12 12 11 10 10 10 11 11 10 11 12 14 11 9 8 10 8 9 11 11 11 9 8 10 11 13 10 10 9 9 10
8 8 9 10 9 8 7 8 8 9 9 8 10 11 8 6 6 6 6 9 9 10 10 9 7 6 4 7 9 9 8 8 8
7 7 7 7 7 6 5 5 5 5 6 5 5 5 7 5 4 5 5 7 8 9 9 9 9 8 5 4 3 4 5 6 7
5 3 5 5 5 4 3 2 2 2 1 2 1 1 3 2 2 2 3 4 5 7 8 9 9 8 7 5 4 5 6 6 5
6 6 4 4 3 2 1 1 1 1 2 2 3 2 2 3 2 1 4 3 3 5 7 8 8 8 8 7 6 5 5 5 6
7 5 5 4 3 3 3 3 3 2 3 5 5 2 4 4 4 4 7 4 2 4 6 7 8 8 7 7 6 6 6 5 5
6 4 3 4 3 4 4 4 2 5 4 5 5 5 5 5 5 7 10 7 5 4 8 8 7 7 7 6 5 5 4 3 3
6 5 5 5 6 5 6 5 6 6 6 7 7 7 6 6 6 7 11 9 8 7 7 10 9 8 7 5 4 5 5 4 3
6 5 5 5 5 5 6 6 6 7 7 8 8 8 8 8 8 8 11 12 10 9 10 9 10 9 8 7 6 5 5 5 5
6 5 5 5 6 6 6 6 6 6 7 7 8 9 9 9 9 9 10 13 12 11 11 12 11 12 11 9 8 9 8 7 7
6 6 5 6 7 7 7 7 7 7 7 8 9 9 10 11 11 11 11 11 13 13 13 14 14 14 14 13 12 12 13 13 11
7 7 7 7 7 7 8 8 9 9 9 10 10 10 11 12 12 13 13 12 12 13 15 14 15 16 16 16 15 15 16 16 15
9 8 8 8 8 9 9 10 11 11 12 12 12 13 14 15 15 15 15 15 15 14 14 15 16 17 18 18 17 18 18 19 19
10 10 10 10 11 11 12 13 13 14 13 13 14 15 16 16 16 16 16 16 14 10 12 12 14 15 15 17 20 20 20 21 20
11 11 11 12 13 13 13 14 14 15 13 14 14 17 17 15 15 15 15 15 8 7 7 7 8 9 11 13 14 18 21 22 22
11 12 12 13 15 15 15 15 14 14 13 7 9 3 11 14 15 7 6 5 6 5 5 5 6 7 7 8 12 16 17 19 22
16 16 16 17 17 17 17 17 16 14 13 13 8 3 4 3 6 4 5 6 6 6 5 5 6 7 8 9 8 10 11 14 18
8 9 9 10 10 14 16 14 14 15 14 14 17 19 12 3 3 6 6 6 8 7 7 10 7 6 6 8 10 13 14 15 15
8 8 8 8 8 8 10 10 12 14 15 15 12 13 14 14 6 4 6 8 6 7 8 7 5 6 7 8 11 14 14 13 12

GFSFLT1_925_spd_084.txt.gz
Wind_Speed
15 16 16 17 15 15 16 15 14 12 12 12 15 13 13 13 11 11 6 11 12 12 9 10 12 14 17 14 13 12 12 13 13
14 15 15 15 15 14 14 13 13 12 13 14 14 12 12 11 9 7 7 11 11 11 11 9 8 8 11 14 12 11 10 11 11
12 13 13 13 13 12 11 10 10 10 10 12 12 11 9 9 6 4 7 9 9 10 10 10 9 8 5 6 7 8 8 8 9
9 10 11 11 10 9 8 7 7 7 7 7 7 7 9 10 5 4 6 6 7 8 9 9 9 8 6 4 4 4 5 6 7
7 6 8 8 8 7 5 4 3 4 3 3 3 4 5 4 3 3 4 4 5 6 8 8 8 8 7 6 5 4 4 5 5
7 7 5 6 5 4 3 2 1 1 2 3 3 2 3 3 1 5 5 5 3 4 6 7 8 8 8 6 6 5 5 5 5
10 5 5 4 3 2 0 1 1 1 1 3 4 3 3 3 4 7 9 7 4 4 4 5 6 7 7 6 5 5 5 5 5
6 2 3 3 1 2 1 1 3 1 2 3 5 5 7 4 5 8 10 10 7 5 7 7 6 6 6 5 4 4 4 4 3
7 6 2 2 4 0 4 5 5 3 6 6 6 7 7 7 6 8 10 11 10 8 7 8 9 8 6 6 4 4 4 3 3
8 7 6 6 5 6 6 5 5 7 7 8 9 9 8 9 8 9 11 12 11 10 10 9 9 10 8 7 6 5 4 4 4
8 7 7 7 7 6 6 6 6 7 7 8 9 10 10 10 11 11 13 12 13 12 12 12 12 11 12 11 9 8 8 7 6
8 9 8 6 7 6 7 7 8 9 9 9 10 10 11 11 11 13 13 15 13 13 12 13 14 14 13 14 13 12 12 12 11
9 7 7 7 8 8 8 9 9 10 10 11 11 11 10 13 13 14 16 15 15 14 14 13 14 15 16 16 16 15 16 15 13
9 8 8 8 9 9 9 10 11 12 12 12 12 14 17 17 16 17 16 16 17 17 17 11 13 14 16 16 18 18 15 16 17
11 10 9 9 10 11 11 12 12 13 13 15 16 18 17 19 19 18 18 16 16 10 5 8 12 10 12 12 12 13 17 18 17
11 11 10 10 11 12 11 12 13 13 13 14 17 19 15 18 19 19 13 11 0 4 7 7 6 7 9 8 8 10 12 14 16
13 12 13 14 13 14 14 14 14 15 15 8 9 3 7 14 13 14 6 2 5 6 5 5 6 7 4 7 7 9 12 13 13
13 15 15 16 16 17 17 16 14 16 16 15 10 2 3 4 2 2 1 0 1 5 6 6 2 2 1 6 9 12 14 14 13
9 9 12 12 12 12 13 14 15 13 16 17 17 20 13 2 3 1 3 1 5 3 2 4 3 2 5 9 11 13 14 14 12
7 6 7 6 7 8 9 9 10 12 14 14 15 12 15 13 8 4 7 5 2 0 3 9 7 7 10 10 11 12 12 13 11

GFSFLT1_925_spd_087.txt.gz
Wind_Speed
19 19 18 18 17 17 16 15 15 16 17 16 13 14 11 11 9 9 10 13 11 11 10 11 12 15 14 13 12 12 12 13 14
18 18 18 17 16 16 16 16 15 15 15 15 13 11 8 9 8 9 10 11 10 11 11 10 9 10 11 12 12 11 9 10 10
16 17 16 15 15 14 14 14 13 14 14 13 11 9 11 8 5 7 9 9 9 10 10 10 9 7 5 5 5 5 6 7 7
14 14 14 13 12 11 11 11 11 10 10 10 8 8 8 6 3 3 7 7 7 8 9 8 8 7 6 4 3 3 4 5 6
11 11 12 11 10 9 8 8 7 7 6 5 5 6 4 4 1 2 4 6 4 5 6 7 7 7 6 5 5 5 5 5 5
8 9 8 8 7 7 6 5 4 4 5 4 3 4 2 2 3 4 5 6 4 3 4 5 5 6 6 5 5 5 6 6 5
8 6 5 5 5 4 3 2 2 4 3 1 2 0 1 2 4 6 8 7 7 5 4 4 4 5 5 5 5 5 4 4 4
8 3 4 5 4 4 3 4 4 3 1 2 3 4 4 6 6 7 8 8 9 7 7 6 5 5 5 5 4 4 3 2 2
8 6 4 3 4 3 3 2 2 5 3 5 4 5 6 7 7 7 9 10 10 9 8 8 9 7 6 6 5 5 4 2 2
9 7 8 5 4 6 6 5 4 5 6 8 9 8 7 8 9 10 10 11 11 10 10 9 9 10 11 9 7 6 6 5 3
10 10 8 8 7 7 7 7 7 6 7 7 8 9 10 10 11 12 14 13 13 12 10 10 10 11 12 12 12 11 9 8 5
11 10 10 9 10 7 8 7 7 7 9 9 9 10 10 12 12 11 13 15 15 14 11 10 11 11 13 14 15 15 14 12 10
12 11 10 9 9 9 9 9 9 10 10 10 12 12 11 11 13 15 15 15 17 17 14 13 10 12 12 14 15 17 15 16 15
11 11 9 8 9 10 10 9 10 10 11 12 10 12 13 16 17 18 17 16 15 16 18 11 9 8 8 10 12 13 12 12 14
11 10 9 9 10 10 11 10 11 12 13 14 15 17 19 20 19 21 18 16 15 14 4 5 4 3 5 6 8 10 11 10 10
14 13 10 10 12 11 9 9 11 12 11 12 18 15 16 17 18 19 17 14 5 4 1 2 1 2 6 6 6 8 11 13 13
13 13 12 14 12 12 13 12 13 16 16 12 14 3 5 11 6 7 3 8 5 2 4 2 1 3 4 6 9 10 11 13 14
15 14 14 16 16 16 17 16 13 15 18 17 8 2 3 3 0 2 4 5 3 2 2 5 4 4 3 5 8 11 12 12 12
13 14 15 18 18 18 17 15 16 14 14 15 13 14 12 3 3 2 1 1 3 3 9 9 8 4 1 7 11 12 11 12 11
10 9 9 9 9 10 10 11 10 11 13 12 13 13 15 16 9 3 6 2 3 10 10 7 5 2 3 11 11 10 10 12 9

GFSFLT1_925_spd_090.txt.gz
Wind_Speed
19 19 19 19 18 17 17 18 18 18 17 16 13 11 10 10 9 11 11 12 10 11 10 10 12 12 10 11 11 10 10 10 11
19 19 19 19 18 16 17 16 16 17 15 13 10 7 8 9 8 10 10 11 10 11 10 9 8 8 7 7 8 8 8 8 8
19 18 17 17 16 16 16 15 15 16 14 12 9 10 7 5 6 8 9 9 9 9 9 9 8 6 4 4 4 4 5 5 6
16 16 15 14 14 14 13 14 14 14 12 10 8 7 6 3 3 4 7 7 7 7 8 8 8 7 5 4 4 4 4 5 6
15 14 12 11 11 10 10 10 10 10 9 8 6 5 2 2 1 1 4 6 4 4 5 6 7 7 6 6 5 5 5 5 5
12 12 11 10 9 8 7 7 7 7 7 6 5 6 2 2 4 4 2 5 5 4 3 4 5 6 6 6 5 5 4 4 5
11 9 8 8 7 6 5 4 4 5 5 4 4 3 1 3 3 5 4 5 5 5 4 4 4 5 5 5 5 4 3 3 3
10 7 7 7 6 6 4 4 4 4 2 1 3 3 3 4 6 5 6 6 6 5 6 6 5 5 5 5 6 5 4 3 2
10 7 5 6 6 6 5 4 4 4 4 3 3 4 5 6 6 7 7 8 7 7 6 7 8 8 7 7 6 6 6 4 2
9 9 7 5 6 6 5 5 5 6 7 7 8 9 8 8 8 9 11 10 9 9 8 8 8 9 10 11 10 8 7 5 3
10 10 9 8 8 6 6 6 6 7 6 6 8 8 9 10 11 11 12 12 11 10 9 8 8 9 11 13 12 14 12 9 7
12 11 10 8 7 7 7 7 7 7 7 9 10 10 10 11 12 13 12 14 14 14 13 11 8 9 11 12 13 13 15 15 13
13 13 12 10 8 9 9 8 10 10 10 10 10 13 13 13 12 13 14 15 16 14 16 16 11 10 11 9 10 11 10 11 17
15 14 12 10 9 10 11 10 9 10 10 12 12 12 14 14 16 18 18 17 16 12 11 13 12 9 8 8 8 7 9 8 7
14 12 11 9 9 10 11 11 11 12 13 13 16 16 18 18 20 20 18 15 14 13 13 7 8 6 5 6 6 9 10 10 10
16 13 11 12 11 11 10 11 11 12 10 10 15 16 19 21 21 19 19 14 8 7 8 7 4 3 3 5 6 9 11 12 11
18 16 15 13 10 10 10 13 12 15 17 13 13 3 8 12 7 5 4 6 12 10 7 7 5 3 3 5 8 10 12 13 13
15 15 14 14 15 16 17 16 15 17 19 16 8 2 3 3 4 1 2 8 10 9 10 11 8 6 4 3 6 11 14 13 12
14 13 14 14 15 18 17 16 17 14 15 16 12 13 8 3 3 4 3 3 5 10 11 10 9 6 3 1 6 12 12 12 11
14 15 15 14 14 14 12 11 11 11 13 12 13 12 14 14 8 4 5 4 6 9 10 10 6 3 1 3 8 12 13 11 9

GFSFLT1_925_spd_093.txt.gz
Wind_Speed
18 18 19 18 18 18 18 18 16 16 14 13 11 10 11 12 13 12 13 12 11 10 10 10 10 10 10 10 11 10 9 11 10
18 18 17 17 17 17 16 16 16 15 12 10 8 9 9 9 11 12 11 10 10 9 10 8 7 6 6 5 6 7 8 8 9
18 17 17 15 14 14 14 13 14 12 11 8 8 8 6 7 8 10 9 9 8 8 9 8 7 5 5 4 5 5 6 7 8
18 17 17 16 15 14 13 12 12 10 9 7 7 6 4 4 5 6 7 8 6 7 8 8 7 7 6 6 6 6 6 7 7
17 16 14 14 13 12 11 10 10 8 7 5 3 3 3 2 2 2 4 6 5 6 6 7 7 7 7 8 8 7 7 7 7
15 14 12 11 10 10 8 8 7 6 6 4 4 3 1 2 4 3 2 3 5 6 6 5 5 6 7 8 8 7 7 6 6
12 11 10 9 8 7 6 5 5 5 4 2 2 3 3 3 4 3 4 2 4 6 6 5 5 5 6 7 7 7 7 6 5
12 10 10 8 7 6 5 5 4 4 2 2 3 4 4 5 5 5 5 5 5 6 8 7 7 7 7 6 6 6 7 6 5
12 9 8 8 7 7 6 4 4 3 3 3 3 4 5 6 7 6 6 7 7 7 7 9 9 9 9 8 7 7 6 6 5
11 10 8 7 8 7 6 5 4 4 5 7 7 7 8 8 8 9 9 9 9 9 8 9 8 9 10 10 10 10 10 8 7
12 11 10 9 8 7 6 5 6 5 5 5 6 7 8 9 9 10 11 11 12 12 11 10 10 8 8 10 11 10 13 13 12
14 12 12 10 9 8 7 7 6 5 5 6 7 8 8 10 12 13 13 12 12 13 15 13 13 11 8 9 8 8 8 11 15
16 13 12 10 9 9 8 6 6 8 8 8 8 10 11 11 12 13 13 15 16 14 13 14 14 11 9 8 7 6 8 9 7
17 15 13 11 10 9 8 8 8 8 9 10 12 12 13 15 17 19 18 18 17 15 10 10 12 13 10 7 5 7 10 9 8
19 16 14 13 11 9 10 9 10 11 12 13 13 13 14 16 18 20 20 17 14 13 14 11 10 12 7 5 5 7 9 11 11
18 17 14 13 13 12 9 11 13 12 12 9 12 16 19 22 19 17 16 15 12 10 11 10 8 5 3 2 4 7 11 13 12
21 18 16 15 12 10 10 10 11 13 15 11 11 3 8 11 4 5 6 2 5 10 11 10 8 7 7 5 2 8 11 15 14
22 20 18 16 14 13 12 13 14 17 14 13 6 2 3 3 3 1 3 2 7 8 9 10 9 7 5 0 3 7 13 17 11
17 14 16 18 15 11 9 11 14 15 16 14 13 14 8 2 3 1 3 3 5 8 8 9 8 6 4 0 3 7 12 14 11
19 18 16 14 12 10 13 14 12 12 13 12 9 9 10 11 5 3 2 2 4 7 9 9 7 6 1 3 5 8 12 14 9

GFSFLT1_925_spd_096.txt.gz
Wind_Speed
17 17 16 17 18 17 17 16 15 15 13 12 11 12 13 14 14 15 14 14 12 10 10 9 11 12 12 11 10 11 11 11 12
17 18 18 18 17 17 16 16 14 13 11 9 9 9 11 11 14 14 13 12 11 10 10 9 8 7 7 7 8 8 8 9 11
16 15 16 15 15 15 15 15 13 11 9 8 8 7 8 8 11 11 12 10 9 10 10 10 9 9 9 8 8 7 8 9 10
14 13 13 12 12 13 13 13 12 10 8 7 7 4 5 6 7 8 9 9 7 9 9 9 9 10 10 10 9 8 8 8 9
13 13 11 11 12 10 11 10 10 8 6 4 4 3 3 4 3 4 5 7 6 7 8 8 8 9 10 9 9 8 8 9 8
13 13 12 11 10 9 8 8 7 6 4 2 1 1 1 3 4 2 2 4 4 7 7 7 7 8 9 8 8 8 9 8 7
12 11 10 9 8 8 7 7 6 5 4 2 1 1 1 3 5 2 2 3 3 6 7 7 7 7 7 7 7 7 8 8 7
11 11 10 9 8 7 6 6 5 5 4 2 3 3 3 3 3 3 3 3 3 4 7 8 7 7 7 6 7 7 7 7 7
12 10 9 9 8 7 5 5 4 5 3 2 1 2 3 4 4 4 4 5 5 5 6 7 9 9 7 6 8 9 8 8 6
11 10 9 9 8 7 7 5 4 4 3 4 5 5 5 5 6 6 6 6 7 8 8 8 9 9 10 7 8 10 9 10 10
11 11 10 9 8 8 6 6 5 5 4 3 3 4 5 5 5 7 8 8 9 10 11 12 11 8 8 7 5 5 7 10 12
15 13 13 10 9 9 8 7 5 4 4 4 5 5 5 7 8 10 10 11 12 12 11 13 11 8 8 7 4 5 6 8 7
16 16 14 11 12 11 9 7 6 6 6 6 6 7 8 9 10 12 12 13 15 15 12 12 12 12 9 5 2 5 6 7 7
20 18 15 12 12 11 9 8 7 6 7 8 9 11 11 12 12 15 14 15 15 14 12 9 9 12 8 4 4 5 9 9 9
21 20 17 15 13 12 11 11 10 9 10 11 11 11 11 11 16 20 19 17 14 12 11 10 8 8 5 2 4 6 8 11 13
22 20 18 17 15 14 13 10 8 10 8 8 10 12 18 17 15 13 11 8 7 7 7 7 9 10 7 6 5 1 4 8 12
23 21 21 19 18 15 12 9 8 8 9 8 6 3 8 6 0 2 4 5 2 2 7 10 10 8 7 6 2 2 5 9 13
25 24 21 19 16 14 14 13 12 12 10 10 5 1 3 3 3 1 2 3 2 6 9 9 8 6 5 4 1 4 8 11 11
23 24 24 18 16 12 15 11 10 10 11 12 11 13 7 3 3 1 4 3 5 7 8 8 8 7 5 3 2 6 10 13 13
14 16 15 13 13 12 10 9 7 8 9 7 5 6 8 10 6 3 2 1 3 6 8 9 8 7 6 3 3 6 10 15 10

GFSFLT1_925_spd_099.txt.gz
Wind_Speed
19 19 20 20 19 17 16 16 15 14 14 14 14 14 15 14 15 15 14 12 11 12 10 8 9 9 9 9 9 10 11 11 11
18 17 18 18 17 16 14 15 13 13 11 11 12 12 13 14 14 13 12 11 11 11 11 10 9 8 9 10 10 10 10 10 10
18 17 17 15 15 14 14 13 11 9 9 10 10 9 9 10 11 12 11 10 10 10 11 10 10 10 10 10 10 10 10 10 10
18 17 16 14 13 13 13 12 10 8 8 9 6 6 7 7 7 8 9 9 8 8 9 9 10 10 10 10 10 11 10 9 9
16 17 15 14 12 12 12 11 9 8 6 6 5 4 4 4 4 4 6 6 6 7 7 7 8 9 9 9 10 11 10 9 8
15 15 15 14 12 11 10 10 8 6 4 3 2 2 2 3 3 1 2 3 3 5 6 6 6 7 7 7 8 9 8 7 7
15 14 13 12 11 10 9 8 7 6 4 2 1 2 1 2 3 1 0 1 1 4 5 5 5 5 5 6 6 7 7 7 7
13 13 12 11 10 9 8 7 6 5 4 2 1 1 1 2 2 2 1 2 2 3 6 7 6 5 5 6 7 7 7 6 7
13 11 11 10 9 8 7 6 6 6 4 2 1 1 1 2 2 2 3 3 4 4 5 7 8 7 6 8 8 9 8 7 7
12 11 9 9 8 8 7 6 5 4 4 3 3 3 3 3 3 3 4 4 5 6 7 8 9 8 7 6 5 7 7 9 9
13 11 9 8 8 7 7 6 5 5 4 3 2 2 2 2 2 5 6 6 7 8 10 10 11 7 5 4 4 4 5 5 8
15 12 12 10 8 8 8 7 6 5 4 3 4 4 2 4 6 7 8 9 9 11 13 11 11 8 7 4 0 1 3 6 6
18 15 13 12 11 11 10 8 8 6 5 5 4 4 7 8 8 10 11 11 11 14 13 12 12 11 9 4 3 1 5 7 7
20 17 16 13 13 12 12 11 9 7 7 5 7 10 8 9 10 11 13 15 15 13 11 10 9 8 4 4 1 6 9 9 9
21 20 18 16 15 15 13 13 12 11 7 9 9 8 8 9 13 15 15 14 12 11 9 7 6 4 6 4 3 3 3 6 8
22 22 20 19 18 17 17 15 13 9 9 6 6 8 10 11 9 6 4 4 4 4 5 7 9 11 12 9 5 2 2 6 9
27 28 21 21 21 20 20 18 11 9 9 4 0 2 5 3 2 1 1 1 2 1 3 7 9 9 7 4 5 2 4 7 10
24 28 24 22 22 23 20 19 14 11 9 7 4 1 3 2 3 1 2 2 3 4 6 9 10 8 6 5 3 3 6 10 13
22 24 22 21 20 16 12 11 11 8 7 6 8 13 9 4 3 1 2 3 4 4 6 7 7 7 7 6 5 4 6 11 12
15 20 21 16 11 6 6 8 9 7 5 6 6 6 7 6 8 5 5 4 4 6 7 9 9 8 7 5 3 3 4 10 7

GFSFLT1_925_spd_102.txt.gz
Wind_Speed
21 22 23 21 18 17 17 15 15 13 12 13 13 13 14 13 11 12 12 10 9 9 8 8 7 8 9 9 9 10 11 11 11
21 23 22 21 18 16 16 14 13 12 11 10 11 11 13 10 10 10 10 9 9 9 9 9 9 9 9 9 9 9 10 10 11
21 23 22 20 18 15 15 13 12 10 11 9 9 8 10 8 8 8 8 8 8 9 9 10 10 10 9 9 9 9 9 10 10
21 21 20 19 18 16 14 11 10 10 10 8 7 6 7 5 5 6 5 7 7 7 8 8 8 9 8 9 9 9 9 9 9
20 19 18 17 17 17 15 12 10 8 8 6 5 4 5 2 3 3 3 5 5 5 6 6 7 7 8 8 8 8 8 8 8
17 15 17 16 15 15 14 12 10 8 6 4 3 3 1 1 1 2 1 3 2 4 5 5 5 5 6 6 6 7 8 8 7
13 14 14 14 13 12 11 10 9 6 4 3 3 3 2 1 0 2 2 1 1 3 4 4 4 4 5 5 5 5 6 6 6
12 12 11 10 10 8 7 7 6 6 5 4 4 4 3 2 1 2 2 2 2 3 5 5 5 4 4 5 5 6 6 6 6
13 12 11 10 9 8 7 6 6 6 6 4 4 3 3 2 2 3 2 3 3 4 5 7 7 7 6 7 6 7 7 6 7
13 12 11 10 9 8 7 7 6 6 6 5 4 4 4 3 3 2 3 3 4 4 5 8 8 6 5 5 4 3 4 6 9
14 13 11 10 9 8 9 8 7 7 6 5 4 4 4 3 3 3 5 4 6 7 8 9 9 8 6 5 3 1 2 4 6
13 12 10 10 10 11 10 9 8 8 7 6 6 5 5 5 6 6 7 8 10 10 11 10 11 9 8 7 5 4 2 5 7
13 11 10 11 11 11 10 11 10 9 9 8 6 6 6 7 8 8 8 9 10 11 13 12 12 10 9 7 6 2 1 3 5
13 12 11 11 12 11 12 11 10 11 10 8 7 7 8 8 8 9 10 12 12 12 13 12 10 8 7 8 7 3 2 2 5
15 13 12 13 12 11 12 12 12 11 8 7 7 8 7 6 8 10 11 10 7 7 7 4 2 5 8 10 7 5 1 3 6
16 14 13 14 15 15 15 14 13 12 10 8 8 7 8 8 6 5 3 3 4 4 1 3 4 7 11 10 6 3 3 5 7
16 16 16 15 16 17 16 17 15 14 11 8 3 4 4 2 1 1 1 2 3 3 2 2 4 4 6 6 5 5 6 7 9
20 21 19 15 15 17 19 21 18 12 7 7 6 2 3 3 3 2 2 2 2 0 1 3 4 4 4 3 4 5 6 10 12
16 17 23 20 19 15 13 15 10 6 8 5 5 5 6 4 4 4 3 3 3 3 2 2 4 6 6 5 3 3 6 9 12
17 16 22 20 15 8 6 9 4 1 2 4 3 6 4 8 10 8 6 5 6 5 4 4 4 3 4 4 6 4 4 8 7

GFSFLT1_925_spd_105.txt.gz
Wind_Speed
21 24 23 22 19 19 16 14 13 12 13 13 14 15 14 13 10 11 11 10 10 10 9 9 10 11 11 11 11 11 12 12 12
24 22 23 21 19 19 18 17 14 11 11 11 12 13 12 10 9 9 10 10 10 10 10 10 10 10 10 11 11 11 11 11 11
23 21 21 20 19 18 16 15 13 11 9 9 9 10 10 8 8 8 8 9 9 9 9 10 10 10 11 10 10 10 10 10 10
21 21 20 19 18 17 15 13 12 12 9 8 7 8 9 6 6 6 7 8 7 8 8 8 8 9 9 8 9 9 9 8 8
19 19 18 17 15 16 13 12 11 10 9 6 6 7 7 4 4 5 4 6 6 6 6 6 6 7 7 7 8 8 8 8 8
19 15 17 16 15 15 12 10 10 8 6 4 4 3 1 2 2 3 2 3 3 4 4 3 4 4 5 5 6 6 7 7 7
16 16 16 14 15 15 13 10 8 7 5 3 3 2 2 2 2 3 2 2 2 0 2 2 3 4 4 4 5 5 5 5 6
13 15 14 13 13 10 10 9 7 7 6 5 5 3 3 2 3 4 3 3 2 2 4 5 5 5 5 5 4 5 6 5 5
15 14 14 12 12 10 9 9 8 8 7 6 5 5 4 4 4 5 2 2 2 3 4 5 8 7 5 6 5 5 5 5 6
15 14 13 13 11 11 10 9 9 9 9 7 7 7 6 5 4 3 2 2 3 3 4 6 8 8 6 5 4 4 4 6 9
15 14 13 12 10 10 9 9 9 9 8 8 7 7 6 5 4 3 4 3 4 6 8 9 10 10 8 6 3 3 1 4 7
14 13 12 10 9 9 9 10 9 8 8 7 8 7 7 5 5 4 4 6 8 8 9 10 11 11 8 7 6 3 1 3 5
13 13 12 11 10 10 10 10 9 8 9 8 8 6 6 6 4 5 7 6 7 9 10 8 12 10 8 7 6 5 2 1 3
14 12 12 10 11 10 10 10 10 9 9 9 8 5 7 5 7 7 6 8 10 9 11 9 10 7 5 7 8 6 3 1 4
15 13 11 12 11 11 11 12 11 11 11 8 7 7 8 7 6 7 8 6 3 4 3 4 3 3 5 10 7 4 0 3 5
15 13 12 13 13 13 13 13 14 13 10 7 11 12 9 7 4 6 4 1 2 2 2 1 2 3 9 11 6 3 1 4 8
17 14 12 12 13 14 15 16 14 15 15 11 12 1 5 6 3 3 3 1 0 1 2 2 2 4 6 8 7 4 4 6 9
18 17 13 12 9 12 13 15 17 14 14 16 4 2 3 3 8 5 4 3 2 1 2 4 5 4 4 3 4 3 4 7 9
17 14 12 10 13 19 15 14 11 17 12 4 2 4 6 2 3 5 6 4 5 4 2 2 3 5 6 5 5 4 4 8 8
12 12 14 14 15 21 18 19 16 7 6 7 2 1 5 9 5 4 7 7 8 7 6 5 5 4 2 3 6 3 2 7 5

GFSFLT1_925_spd_108.txt.gz
Wind_Speed
24 19 21 19 15 17 17 16 16 16 15 16 17 14 15 16 13 10 9 12 12 12 11 11 11 12 11 12 13 13 13 13 13
26 22 21 16 16 15 14 15 15 14 15 15 14 13 14 12 12 8 11 13 12 11 11 11 11 11 11 12 12 12 12 12 12
24 23 19 18 16 16 15 13 12 13 12 13 13 12 11 11 8 5 10 11 11 10 10 10 10 10 10 11 11 11 11 12 12
22 22 19 17 16 13 14 12 11 10 10 9 10 10 9 11 6 7 7 9 8 9 8 8 8 9 9 10 10 10 10 10 10
21 21 19 16 15 12 12 11 11 9 8 7 8 10 9 8 7 3 3 7 7 7 6 6 7 7 8 8 9 10 10 10 10
21 20 18 15 14 11 10 10 10 9 6 5 5 6 4 5 5 4 2 5 5 5 5 5 5 6 6 7 8 8 8 9 9
22 20 18 16 14 13 11 9 8 7 5 2 3 5 5 3 4 4 3 3 3 3 2 3 3 4 4 5 6 7 7 7 7
22 19 19 17 17 16 14 11 9 6 6 7 2 1 4 5 5 4 3 3 2 2 1 3 3 4 3 3 4 5 5 5 6
20 22 20 18 17 13 11 9 7 6 7 7 5 7 4 4 5 6 1 2 2 2 2 3 6 6 4 4 3 4 4 6 7
20 20 19 15 13 15 9 12 9 9 9 8 7 6 6 5 6 4 2 1 2 3 3 4 5 6 6 4 2 1 1 2 6
21 20 19 18 15 13 12 12 10 9 10 9 8 7 6 4 4 4 4 2 3 5 5 7 7 5 5 5 4 1 1 3 6
21 19 19 17 15 13 13 11 10 10 9 9 8 7 7 8 6 6 3 6 8 7 6 7 9 9 6 5 6 4 3 1 4
21 19 18 16 14 15 12 10 11 8 8 8 10 9 8 7 5 3 8 7 2 4 6 8 8 10 7 8 8 7 5 3 2
21 20 18 16 14 13 13 12 12 12 12 13 10 13 9 8 7 5 1 3 6 8 8 7 8 8 4 9 10 7 4 1 2
22 19 16 14 16 13 12 13 13 12 14 14 14 7 6 10 7 5 4 7 7 2 3 3 5 5 5 12 11 9 5 2 2
21 18 17 17 18 16 14 13 12 13 15 12 13 10 14 11 8 6 3 4 2 1 1 2 3 1 11 13 9 6 4 2 4
22 21 17 16 15 12 11 13 14 15 17 9 5 2 7 9 8 6 8 3 3 3 4 3 3 5 8 8 7 6 5 3 5
22 21 17 16 15 15 14 11 9 10 15 18 6 2 3 5 9 10 7 6 6 6 5 5 5 6 7 9 8 7 5 4 6
22 20 15 12 11 13 9 10 16 12 18 5 5 4 4 3 2 9 9 9 7 6 4 4 6 7 5 6 4 3 2 6 6
13 13 13 13 16 13 11 12 8 9 13 14 8 6 8 9 2 2 6 10 8 8 4 4 3 4 2 4 4 2 1 5 4

GFSFLT1_925_spd_111.txt.gz
Wind_Speed
21 22 22 19 15 16 13 15 15 17 19 19 18 17 16 12 12 9 10 11 11 11 12 13 13 13 13 13 14 14 15 15 15
21 23 21 17 16 15 13 14 15 17 18 17 16 16 14 10 9 9 11 12 11 11 12 12 12 12 12 13 13 13 13 14 13
23 24 20 17 15 14 13 13 14 15 16 15 16 14 13 9 7 9 10 10 10 10 10 11 11 11 11 11 11 11 12 12 12
25 23 20 18 17 15 14 11 12 12 13 14 13 12 11 8 6 8 8 9 8 8 8 9 9 9 9 9 10 10 11 11 10
25 20 22 20 17 16 14 13 10 10 10 11 12 12 12 7 5 4 5 7 6 6 6 6 6 7 7 7 8 9 9 10 10
25 22 21 20 16 15 13 12 12 9 8 9 11 9 8 8 6 3 2 4 5 4 4 4 4 5 5 6 7 7 7 7 8
25 23 21 20 17 13 12 12 11 9 7 6 8 7 5 6 5 4 1 2 3 2 2 2 3 3 3 3 4 6 5 6 7
26 24 22 21 18 17 15 13 11 9 7 5 6 4 4 5 4 2 1 3 3 3 2 2 2 3 3 4 3 4 4 5 6
28 26 24 22 22 20 16 13 11 9 6 5 4 6 5 5 8 3 2 2 3 4 3 3 5 5 5 4 4 2 1 2 5
30 28 25 24 23 20 16 12 12 10 8 9 9 9 5 8 9 5 5 1 3 4 4 3 5 6 5 4 4 4 3 0 3
30 28 28 23 21 19 14 12 11 13 10 11 9 9 10 9 10 7 7 3 4 5 5 5 6 6 6 5 7 5 5 2 1
26 27 27 23 19 16 16 14 13 13 13 13 11 11 9 10 8 10 8 6 6 5 6 7 8 8 7 8 9 8 7 4 1
27 26 24 21 19 19 18 16 15 14 13 13 12 12 12 8 10 10 8 6 7 6 7 8 9 10 10 8 11 9 8 4 1
29 26 25 23 21 21 18 16 14 15 12 13 14 14 13 12 9 7 4 7 4 4 6 6 6 8 7 10 11 9 7 4 3
28 25 24 24 22 18 20 17 16 14 14 12 16 8 12 9 10 11 7 5 5 6 5 5 3 4 4 10 10 7 5 5 4
28 27 25 23 24 22 20 18 16 15 12 7 16 12 10 12 11 11 8 8 6 5 3 4 1 2 7 11 9 5 3 4 5
29 27 26 25 26 24 20 19 16 14 12 8 4 2 3 8 13 12 11 8 5 4 4 5 3 2 6 6 7 7 5 5 6
27 29 25 23 26 25 22 19 17 15 7 12 4 1 4 3 10 12 11 10 7 7 5 6 6 7 9 9 9 8 6 6 8
26 26 25 23 24 25 22 23 19 15 15 8 12 11 3 2 1 6 10 10 12 12 9 8 8 8 8 8 8 7 5 4 6
20 20 17 13 15 12 12 11 11 14 18 15 12 15 18 12 3 3 4 10 12 13 9 8 9 9 9 7 6 6 4 1 1

GFSFLT1_925_spd_114.txt.gz
Wind_Speed
23 23 22 20 18 17 16 16 16 18 16 16 15 16 15 12 9 9 10 12 12 12 12 13 13 13 13 13 13 13 13 13 13
26 23 21 17 19 17 17 16 15 17 16 14 13 13 12 9 8 11 11 12 11 11 11 11 12 11 11 11 12 12 12 12 12
24 22 19 17 18 17 18 17 16 17 15 14 11 11 10 9 10 10 11 11 10 10 10 10 10 10 10 10 10 10 11 11 11
24 23 17 17 17 17 16 16 16 16 14 13 11 9 8 7 9 9 9 9 8 8 8 8 8 8 8 9 9 9 10 10 10
25 22 18 17 18 16 15 15 14 14 14 11 10 9 9 6 6 6 6 6 6 6 6 6 6 6 7 7 8 8 8 8 8
26 21 20 19 17 16 16 14 13 12 12 12 10 8 6 8 6 4 4 3 4 4 4 4 4 4 5 5 6 5 6 6 6
27 23 22 21 17 17 15 15 13 12 11 11 10 8 4 6 7 5 3 3 3 2 2 2 2 3 3 3 4 4 4 5 6
28 25 25 23 18 17 16 15 14 12 10 9 11 8 6 6 7 4 2 4 4 4 3 2 1 2 2 3 2 2 2 3 5
29 28 26 25 22 20 17 16 14 13 12 10 10 9 8 7 8 6 4 3 4 5 4 4 4 5 5 5 4 3 3 3 5
31 28 27 27 24 22 20 17 15 14 13 11 11 9 10 11 10 9 7 4 3 5 5 5 5 6 6 6 5 5 5 3 3
35 32 30 28 27 25 22 18 17 16 14 13 13 10 12 12 12 12 10 8 5 4 5 6 7 7 6 7 8 7 5 4 1
36 36 33 33 30 26 21 20 17 16 16 15 15 13 13 13 14 16 11 10 7 6 7 9 9 9 9 7 9 9 7 5 2
38 38 37 33 29 27 25 21 19 17 17 16 16 14 14 14 15 18 14 11 11 10 12 11 11 10 10 10 12 9 7 5 2
40 38 35 31 30 28 24 22 22 19 17 16 15 14 16 17 13 14 13 12 12 8 9 10 9 8 9 9 11 9 7 5 3
39 35 30 31 30 27 25 24 23 20 19 16 15 15 15 17 17 15 13 13 11 9 8 6 5 5 3 6 10 8 6 5 5
39 33 32 31 31 30 28 24 22 20 16 14 13 12 11 13 14 14 14 13 9 7 6 6 5 3 4 9 11 8 6 7 6
37 35 34 33 32 30 28 28 23 21 19 10 5 2 5 10 15 16 17 13 10 8 7 9 7 4 8 9 9 8 8 8 6
35 35 34 33 33 32 32 30 27 21 20 19 8 2 4 3 7 14 16 15 12 9 9 10 10 9 11 11 10 10 9 7 8
33 32 32 34 33 33 33 31 30 23 18 17 20 11 7 3 2 8 16 13 13 12 12 11 11 10 10 9 8 8 5 4 6
35 35 35 33 29 28 31 18 16 18 22 16 9 9 9 7 2 3 6 14 17 15 15 14 12 11 9 7 8 7 6 3 2

GFSFLT1_925_spd_117.txt.gz
Wind_Speed
20 19 19 19 18 17 16 17 18 15 12 11 14 13 12 9 8 8 9 11 11 11 12 12 12 12 12 12 12 12 13 13 13
23 22 21 19 18 17 17 19 18 15 11 10 13 12 8 6 8 9 10 11 10 10 10 10 10 11 11 11 11 11 11 12 12
24 23 19 17 18 17 17 18 18 15 12 10 11 10 8 8 8 9 9 10 9 9 8 9 9 9 9 9 9 10 10 10 10
23 23 19 17 17 18 18 17 19 16 12 10 9 9 7 7 7 7 8 7 7 7 7 7 7 8 8 8 8 9 9 9 9
23 22 19 18 18 18 18 17 17 16 13 9 8 8 7 6 6 5 5 6 5 5 6 5 5 6 7 7 7 6 7 7 7
24 24 20 20 19 18 17 17 17 15 14 11 9 8 7 7 5 4 3 3 3 3 4 4 4 4 4 5 5 5 5 5 6
26 24 22 22 20 17 17 16 15 15 14 14 11 9 7 8 7 5 4 4 4 3 2 2 1 1 1 2 3 3 3 3 5
28 26 23 23 20 19 18 18 17 15 14 15 14 11 8 7 9 8 6 5 6 5 3 3 2 2 3 3 2 2 2 3 5
33 30 27 26 24 22 20 18 18 17 15 13 14 13 11 9 10 8 7 5 6 7 5 5 5 5 5 6 6 5 4 4 5
35 33 32 30 27 24 23 20 19 17 16 14 14 13 12 11 11 11 9 7 6 6 6 5 6 6 6 7 8 7 6 5 3
37 34 34 31 30 26 24 22 20 18 17 16 15 15 13 13 14 14 12 11 8 6 6 6 7 8 7 8 9 8 7 4 2
40 34 34 32 31 27 25 22 20 20 19 18 17 16 14 15 15 16 17 16 12 9 8 8 9 10 10 8 9 9 7 5 4
39 36 37 37 32 29 28 25 23 21 20 19 18 18 16 17 17 18 19 20 17 14 13 12 12 11 12 10 9 10 8 7 6
39 38 36 37 35 33 30 27 25 23 21 20 19 19 19 19 18 19 20 20 15 16 14 13 11 12 10 10 9 11 9 8 6
34 30 32 38 37 35 32 31 27 25 23 20 20 19 19 19 19 20 18 18 16 16 12 12 11 9 8 5 10 12 8 7 7
37 30 33 37 39 37 35 32 28 27 21 17 18 18 18 19 20 21 21 21 19 15 13 10 9 7 5 7 12 9 7 8 8
39 35 35 40 37 36 35 33 27 28 24 13 4 2 7 15 15 19 21 21 19 17 14 10 9 6 6 10 11 12 10 7 7
42 43 39 40 36 37 35 34 31 24 25 21 7 2 4 2 10 18 20 21 21 18 14 12 10 9 10 12 12 10 11 10 8
39 41 42 39 39 36 33 34 31 25 24 24 21 8 2 3 2 6 17 19 19 20 17 15 12 13 13 13 12 12 10 7 5
38 40 37 38 37 36 35 33 31 30 22 20 10 16 9 6 2 2 4 15 21 21 18 17 16 15 15 12 11 10 8 7 4